GW2039 Weather Reports


Display with metric or nautical units.
time (UTC)temp
F
wind
direction
speed
MPH
gust
MPH
rain 1hr
in
rain 24hr
in
rain mn
in
humidity
%
barometer
mb
20260509154104 91 133 3.0 5.0 0.00 0.00 0.00 50 1008.4
20260509154008 91 119 3.0 5.0 0.00 0.00 0.00 50 1008.4
20260509153905 91 162 3.0 5.0 0.00 0.00 0.00 50 1008.4
20260509153803 91 121 3.0 5.0 0.00 0.00 0.00 50 1008.4
20260509153704 91 134 3.0 5.0 0.00 0.00 0.00 50 1008.4
20260509153603 91 148 3.0 5.0 0.00 0.00 0.00 50 1008.4
20260509153507 91 130 2.0 5.0 0.00 0.00 0.00 50 1008.4
20260509153403 91 144 2.0 3.0 0.00 0.00 0.00 50 1008.5
20260509153304 91 139 2.0 3.0 0.00 0.00 0.00 50 1008.4
20260509153204 91 137 2.0 3.0 0.00 0.00 0.00 50 1008.5
20260509153104 91 124 2.0 5.0 0.00 0.00 0.00 50 1008.4
20260509153007 91 135 2.0 5.0 0.00 0.00 0.00 50 1008.4
20260509152905 91 136 2.0 5.0 0.00 0.00 0.00 50 1008.4
20260509152803 91 128 2.0 5.0 0.00 0.00 0.00 50 1008.3
20260509152704 91 136 2.0 5.0 0.00 0.00 0.00 50 1008.3
20260509152605 91 142 2.0 5.0 0.00 0.00 0.00 50 1008.3
20260509152507 91 130 3.0 5.0 0.00 0.00 0.00 50 1008.3
20260509152403 91 142 2.0 5.0 0.00 0.00 0.00 50 1008.3
20260509152305 91 134 2.0 4.0 0.00 0.00 0.00 50 1008.4
20260509152203 91 144 2.0 4.0 0.00 0.00 0.00 50 1008.3
20260509152104 91 131 3.0 4.0 0.00 0.00 0.00 50 1008.3
20260509151903 91 128 2.0 5.0 0.00 0.00 0.00 50 1008.2
20260509151803 91 117 2.0 5.0 0.00 0.00 0.00 50 1008.3
20260509151704 91 135 2.0 5.0 0.00 0.00 0.00 50 1008.3
20260509151603 91 140 3.0 5.0 0.00 0.00 0.00 50 1008.3
20260509151505 91 136 3.0 5.0 0.00 0.00 0.00 50 1008.3
20260509151404 91 126 3.0 5.0 0.00 0.00 0.00 50 1008.2
20260509151306 91 138 3.0 5.0 0.00 0.00 0.00 50 1008.3
20260509151203 91 132 3.0 5.0 0.00 0.00 0.00 50 1008.2
20260509151104 91 126 3.0 5.0 0.00 0.00 0.00 50 1008.3
20260509151007 91 121 3.0 6.0 0.00 0.00 0.00 50 1008.2
20260509150903 91 132 3.0 6.0 0.00 0.00 0.00 50 1008.2
20260509150803 91 136 3.0 6.0 0.00 0.00 0.00 50 1008.2
20260509150703 91 132 4.0 6.0 0.00 0.00 0.00 50 1008.2
20260509150505 91 131 4.0 5.0 0.00 0.00 0.00 50 1008.1
20260509150404 91 155 3.0 6.0 0.00 0.00 0.00 50 1008.1
20260509150304 91 134 3.0 6.0 0.00 0.00 0.00 50 1008.1
20260509150104 91 159 3.0 5.0 0.00 0.00 0.00 50 1008.1
20260509150009 91 118 3.0 4.0 0.00 0.00 0.00 51 1008.1
20260509145905 91 110 2.0 4.0 0.00 0.00 0.00 50 1008.1
20260509145804 91 141 2.0 4.0 0.00 0.00 0.00 51 1008.0
20260509145605 91 148 2.0 4.0 0.00 0.00 0.00 51 1008.0
20260509145506 91 136 2.0 6.0 0.00 0.00 0.00 51 1008.0
20260509145404 91 170 2.0 6.0 0.00 0.00 0.00 51 1008.0
20260509145306 91 117 2.0 6.0 0.00 0.00 0.00 50 1008.0
20260509145203 91 111 2.0 6.0 0.00 0.00 0.00 51 1008.0
20260509145005 91 126 3.0 6.0 0.00 0.00 0.00 51 1007.9
20260509144903 91 140 3.0 6.0 0.00 0.00 0.00 51 1007.9
20260509144803 91 100 3.0 6.0 0.00 0.00 0.00 51 1007.9
20260509144604 92 103 3.0 6.0 0.00 0.00 0.00 51 1007.8
20260509144505 92 104 3.0 4.0 0.00 0.00 0.00 51 1007.8
20260509144303 92 82 2.0 4.0 0.00 0.00 0.00 51 1007.8
20260509144203 92 119 2.0 4.0 0.00 0.00 0.00 51 1007.8
20260509143903 92 96 2.0 6.0 0.00 0.00 0.00 51 1007.7
20260509143703 92 95 2.0 6.0 0.00 0.00 0.00 50 1007.8
20260509143505 92 101 3.0 6.0 0.00 0.00 0.00 50 1007.8
20260509143402 92 96 3.0 6.0 0.00 0.00 0.00 50 1007.7
20260509143304 92 110 3.0 6.0 0.00 0.00 0.00 49 1007.7
20260509143103 93 107 1.0 3.0 0.00 0.00 0.00 47 1007.7
20260509143007 93 61 0.0 2.0 0.00 0.00 0.00 47 1007.7
20260509142703 93 346 0.0 1.0 0.00 0.00 0.00 47 1007.6
20260509142603 93 346 0.0 1.0 0.00 0.00 0.00 47 1007.6
20260509142403 93 346 0.0 0.0 0.00 0.00 0.00 47 1007.6
20260509142306 93 346 0.0 0.0 0.00 0.00 0.00 47 1007.6
20260509142203 93 346 0.0 0.0 0.00 0.00 0.00 47 1007.5
20260509142104 93 346 0.0 0.0 0.00 0.00 0.00 47 1007.6
20260509142006 93 346 0.0 0.0 0.00 0.00 0.00 47 1007.6
20260509141906 93 346 0.0 0.0 0.00 0.00 0.00 47 1007.6
20260509141805 93 346 0.0 0.0 0.00 0.00 0.00 47 1007.5
20260509141702 93 346 0.0 0.0 0.00 0.00 0.00 47 1007.5
20260509141606 93 346 0.0 0.0 0.00 0.00 0.00 47 1007.5
20260509141405 93 346 0.0 0.0 0.00 0.00 0.00 47 1007.5
20260509141303 93 346 0.0 0.0 0.00 0.00 0.00 47 1007.5
20260509141204 93 346 0.0 0.0 0.00 0.00 0.00 47 1007.5
20260509141006 93 346 0.0 0.0 0.00 0.00 0.00 47 1007.4
20260509140903 93 346 0.0 0.0 0.00 0.00 0.00 47 1007.5
20260509140703 93 346 0.0 0.0 0.00 0.00 0.00 47 1007.3
20260509140603 93 346 0.0 0.0 0.00 0.00 0.00 47 1007.4
20260509140505 93 346 0.0 0.0 0.00 0.00 0.00 47 1007.4
20260509140403 93 346 0.0 0.0 0.00 0.00 0.00 47 1007.3
20260509140305 93 346 0.0 2.0 0.00 0.00 0.00 47 1007.4
20260509140206 93 346 0.0 2.0 0.00 0.00 0.00 47 1007.4
20260509140103 93 346 0.0 2.0 0.00 0.00 0.00 47 1007.3
20260509135903 93 346 0.0 2.0 0.00 0.00 0.00 47 1007.3
20260509135803 93 346 0.0 2.0 0.00 0.00 0.00 47 1007.3
20260509135703 93 346 0.0 2.0 0.00 0.00 0.00 47 1007.3
20260509135505 93 337 0.0 3.0 0.00 0.00 0.00 47 1007.3
20260509135404 93 336 0.0 3.0 0.00 0.00 0.00 47 1007.3
20260509135306 93 348 0.0 3.0 0.00 0.00 0.00 47 1007.3
20260509135209 93 347 0.0 3.0 0.00 0.00 0.00 47 1007.3
20260509135008 93 348 1.0 3.0 0.00 0.00 0.00 47 1007.3
20260509134905 93 348 1.0 3.0 0.00 0.00 0.00 47 1007.3
20260509134705 93 355 2.0 3.0 0.00 0.00 0.00 47 1007.3
20260509134603 93 350 1.0 2.0 0.00 0.00 0.00 47 1007.3
20260509134506 93 355 1.0 2.0 0.00 0.00 0.00 47 1007.2
20260509134405 93 355 1.0 2.0 0.00 0.00 0.00 47 1007.2
20260509134303 93 355 1.0 2.0 0.00 0.00 0.00 48 1007.3
20260509134203 93 355 0.0 1.0 0.00 0.00 0.00 48 1007.2
20260509134103 93 355 0.0 1.0 0.00 0.00 0.00 48 1007.2
20260509133805 93 355 1.0 2.0 0.00 0.00 0.00 48 1007.1
20260509133704 94 355 0.0 2.0 0.00 0.00 0.00 48 1007.1
20260509133604 94 355 0.0 2.0 0.00 0.00 0.00 48 1007.1
20260509133508 94 355 1.0 2.0 0.00 0.00 0.00 48 1007.1
20260509133404 94 360 1.0 2.0 0.00 0.00 0.00 47 1007.1
20260509133303 94 329 1.0 3.0 0.00 0.00 0.00 47 1007.1
20260509133104 94 338 1.0 3.0 0.00 0.00 0.00 47 1007.1
20260509133009 94 18 1.0 3.0 0.00 0.00 0.00 47 1007.1
20260509132903 94 341 1.0 3.0 0.00 0.00 0.00 47 1007.1
20260509132803 94 346 1.0 3.0 0.00 0.00 0.00 47 1007.0
20260509132703 94 5 1.0 3.0 0.00 0.00 0.00 47 1007.1
20260509132604 94 348 2.0 3.0 0.00 0.00 0.00 47 1007.2
20260509132403 94 355 2.0 3.0 0.00 0.00 0.00 47 1007.1
20260509132306 94 360 2.0 3.0 0.00 0.00 0.00 47 1007.1
20260509132207 94 355 2.0 3.0 0.00 0.00 0.00 47 1007.1
20260509132103 94 326 2.0 3.0 0.00 0.00 0.00 46 1007.1
20260509132006 94 344 2.0 3.0 0.00 0.00 0.00 47 1007.0
20260509131903 94 335 2.0 3.0 0.00 0.00 0.00 46 1007.1
20260509131802 94 332 2.0 3.0 0.00 0.00 0.00 46 1007.1
20260509131705 95 332 2.0 4.0 0.00 0.00 0.00 46 1007.1
20260509131402 95 332 2.0 4.0 0.00 0.00 0.00 46 1007.1
20260509131203 95 344 2.0 4.0 0.00 0.00 0.00 46 1007.1
20260509131104 95 340 2.0 4.0 0.00 0.00 0.00 45 1007.1
20260509131007 95 328 2.0 4.0 0.00 0.00 0.00 45 1007.1
20260509130903 95 336 2.0 4.0 0.00 0.00 0.00 46 1007.1
20260509130704 95 332 1.0 3.0 0.00 0.00 0.00 46 1007.1
20260509130505 95 343 2.0 3.0 0.00 0.00 0.00 45 1007.1
20260509130403 95 341 2.0 3.0 0.00 0.00 0.00 45 1007.1
20260509130203 95 330 2.0 3.0 0.00 0.00 0.00 45 1007.1
20260509130106 95 334 2.0 2.0 0.00 0.00 0.00 45 1007.1
20260509130009 95 326 1.0 2.0 0.00 0.00 0.00 45 1007.2
20260509125903 96 342 1.0 2.0 0.00 0.00 0.00 45 1007.2
20260509125804 96 323 1.0 2.0 0.00 0.00 0.00 45 1007.1
20260509125703 96 340 1.0 2.0 0.00 0.00 0.00 45 1007.1
20260509125604 96 345 1.0 2.0 0.00 0.00 0.00 44 1007.1
20260509125506 96 335 1.0 2.0 0.00 0.00 0.00 45 1007.2
20260509125403 96 335 1.0 2.0 0.00 0.00 0.00 44 1007.1
20260509125307 96 304 1.0 2.0 0.00 0.00 0.00 44 1007.1
20260509125203 96 325 1.0 2.0 0.00 0.00 0.00 44 1007.1
20260509125006 96 325 1.0 2.0 0.00 0.00 0.00 44 1007.1
20260509124903 96 325 1.0 2.0 0.00 0.00 0.00 44 1007.1
20260509124802 96 325 2.0 2.0 0.00 0.00 0.00 44 1007.1
20260509124701 96 321 1.0 2.0 0.00 0.00 0.00 44 1007.1
20260509124603 96 321 1.0 2.0 0.00 0.00 0.00 44 1007.1
20260509124505 96 321 1.0 2.0 0.00 0.00 0.00 43 1007.1
20260509124402 96 348 1.0 2.0 0.00 0.00 0.00 43 1007.1
20260509124302 96 331 1.0 2.0 0.00 0.00 0.00 43 1007.1
20260509124203 96 338 1.0 2.0 0.00 0.00 0.00 43 1007.0
20260509124005 96 327 1.0 2.0 0.00 0.00 0.00 43 1007.0
20260509123904 96 327 1.0 2.0 0.00 0.00 0.00 43 1007.0
20260509123803 96 327 1.0 2.0 0.00 0.00 0.00 43 1007.0
20260509123708 96 327 1.0 2.0 0.00 0.00 0.00 43 1007.0
20260509123602 96 327 0.0 1.0 0.00 0.00 0.00 43 1007.0
20260509123505 96 327 0.0 1.0 0.00 0.00 0.00 43 1007.0
20260509123403 96 327 0.0 2.0 0.00 0.00 0.00 43 1007.0
20260509123303 96 327 0.0 3.0 0.00 0.00 0.00 43 1007.0
20260509123201 96 306 0.0 3.0 0.00 0.00 0.00 43 1007.1
20260509123103 96 231 0.0 3.0 0.00 0.00 0.00 43 1007.0
20260509123005 96 231 0.0 3.0 0.00 0.00 0.00 43 1007.0
20260509122902 96 232 0.0 3.0 0.00 0.00 0.00 43 1007.0
20260509122803 96 252 0.0 3.0 0.00 0.00 0.00 43 1007.0
20260509122702 96 269 0.0 3.0 0.00 0.00 0.00 43 1007.0
20260509122606 96 269 1.0 3.0 0.00 0.00 0.00 43 1007.0
20260509122403 96 276 2.0 3.0 0.00 0.00 0.00 43 1007.0
20260509122305 96 248 1.0 3.0 0.00 0.00 0.00 43 1007.0
20260509122102 96 287 1.0 2.0 0.00 0.00 0.00 43 1007.0
20260509122006 96 288 1.0 2.0 0.00 0.00 0.00 43 1007.1
20260509121902 96 35 1.0 2.0 0.00 0.00 0.00 43 1007.0
20260509121803 96 41 1.0 2.0 0.00 0.00 0.00 43 1007.1
20260509121703 96 277 1.0 2.0 0.00 0.00 0.00 42 1007.0
20260509121604 96 273 1.0 2.0 0.00 0.00 0.00 42 1007.1
20260509121505 96 264 0.0 2.0 0.00 0.00 0.00 42 1007.0
20260509121402 96 223 0.0 2.0 0.00 0.00 0.00 42 1007.0
20260509121303 96 242 0.0 2.0 0.00 0.00 0.00 42 1007.1
20260509121202 96 242 1.0 2.0 0.00 0.00 0.00 42 1007.1
20260509121103 96 227 1.0 2.0 0.00 0.00 0.00 42 1007.0
20260509121006 96 227 1.0 2.0 0.00 0.00 0.00 42 1007.1
20260509120902 96 205 0.0 2.0 0.00 0.00 0.00 42 1007.1
20260509120803 96 205 0.0 2.0 0.00 0.00 0.00 42 1007.0
20260509120705 97 205 0.0 2.0 0.00 0.00 0.00 42 1007.1
20260509120603 96 205 0.0 2.0 0.00 0.00 0.00 42 1007.1
20260509120505 97 205 1.0 2.0 0.00 0.00 0.00 42 1007.1
20260509120402 97 205 0.0 2.0 0.00 0.00 0.00 42 1007.1
20260509120202 97 245 0.0 2.0 0.00 0.00 0.00 42 1007.1
20260509120009 97 247 1.0 2.0 0.00 0.00 0.00 43 1007.1
20260509115905 96 273 0.0 1.0 0.00 0.00 0.00 42 1007.1
20260509115803 97 264 0.0 1.0 0.00 0.00 0.00 42 1007.1
20260509115704 96 264 0.0 1.0 0.00 0.00 0.00 42 1007.1
20260509115505 96 264 0.0 2.0 0.00 0.00 0.00 42 1007.1
20260509115405 96 256 0.0 2.0 0.00 0.00 0.00 43 1007.1
20260509115306 96 238 0.0 2.0 0.00 0.00 0.00 43 1007.1
20260509115204 97 234 1.0 2.0 0.00 0.00 0.00 43 1007.1
20260509115104 97 234 1.0 2.0 0.00 0.00 0.00 42 1007.1
20260509115008 96 232 1.0 2.0 0.00 0.00 0.00 43 1007.1
20260509114905 97 232 1.0 2.0 0.00 0.00 0.00 43 1007.1
20260509114803 96 227 1.0 2.0 0.00 0.00 0.00 43 1007.1
20260509114703 96 253 1.0 2.0 0.00 0.00 0.00 42 1007.1
20260509114604 96 175 1.0 1.0 0.00 0.00 0.00 42 1007.1
20260509114508 96 176 0.0 1.0 0.00 0.00 0.00 42 1007.1
20260509114404 96 223 0.0 0.0 0.00 0.00 0.00 42 1007.1
20260509114203 96 223 0.0 1.0 0.00 0.00 0.00 43 1007.1
20260509114103 96 236 0.0 2.0 0.00 0.00 0.00 42 1007.1
20260509114006 96 236 0.0 2.0 0.00 0.00 0.00 42 1007.1
20260509113902 96 236 0.0 2.0 0.00 0.00 0.00 42 1007.2
20260509113804 96 236 0.0 2.0 0.00 0.00 0.00 42 1007.2
20260509113703 96 236 0.0 2.0 0.00 0.00 0.00 42 1007.2
20260509113604 96 236 0.0 3.0 0.00 0.00 0.00 43 1007.2
20260509113506 96 236 0.0 3.0 0.00 0.00 0.00 43 1007.2
20260509113405 96 236 0.0 3.0 0.00 0.00 0.00 43 1007.1
20260509113303 96 239 1.0 3.0 0.00 0.00 0.00 44 1007.2
20260509113203 96 257 1.0 3.0 0.00 0.00 0.00 43 1007.1
20260509113106 96 261 1.0 3.0 0.00 0.00 0.00 43 1007.1
20260509112904 96 269 1.0 4.0 0.00 0.00 0.00 42 1007.2
20260509112803 96 269 1.0 4.0 0.00 0.00 0.00 42 1007.2
20260509112706 96 269 1.0 4.0 0.00 0.00 0.00 43 1007.2
20260509112603 96 282 0.0 4.0 0.00 0.00 0.00 42 1007.2
20260509112505 96 161 1.0 4.0 0.00 0.00 0.00 42 1007.3
20260509112404 96 155 1.0 5.0 0.00 0.00 0.00 42 1007.3
20260509112307 96 159 2.0 6.0 0.00 0.00 0.00 42 1007.2
20260509112203 96 202 2.0 6.0 0.00 0.00 0.00 42 1007.4
20260509112103 96 217 2.0 6.0 0.00 0.00 0.00 42 1007.3
20260509112006 96 218 2.0 6.0 0.00 0.00 0.00 43 1007.3
20260509111904 96 209 2.0 6.0 0.00 0.00 0.00 42 1007.3
20260509111804 96 153 3.0 6.0 0.00 0.00 0.00 42 1007.2
20260509111506 97 205 2.0 6.0 0.00 0.00 0.00 42 1007.3
20260509111403 97 260 1.0 6.0 0.00 0.00 0.00 42 1007.3
20260509111304 97 216 1.0 6.0 0.00 0.00 0.00 43 1007.3
20260509111203 97 223 1.0 6.0 0.00 0.00 0.00 43 1007.3
20260509111006 97 293 3.0 6.0 0.00 0.00 0.00 42 1007.3
20260509110803 97 284 1.0 4.0 0.00 0.00 0.00 42 1007.3
20260509110505 97 349 2.0 6.0 0.00 0.00 0.00 42 1007.3
20260509110403 97 355 2.0 6.0 0.00 0.00 0.00 42 1007.3
20260509110303 97 342 1.0 6.0 0.00 0.00 0.00 42 1007.3
20260509110203 97 333 2.0 6.0 0.00 0.00 0.00 42 1007.3
20260509110103 97 328 3.0 6.0 0.00 0.00 0.00 41 1007.3
20260509105507 97 282 3.0 7.0 0.00 0.00 0.00 42 1007.3
20260509105403 98 263 4.0 7.0 0.00 0.00 0.00 41 1007.3
20260509105306 98 294 4.0 7.0 0.00 0.00 0.00 41 1007.3
20260509105203 98 288 3.0 7.0 0.00 0.00 0.00 42 1007.3
20260509105103 98 297 2.0 7.0 0.00 0.00 0.00 41 1007.3
20260509105005 98 315 1.0 4.0 0.00 0.00 0.00 41 1007.3
20260509104902 97 331 0.0 4.0 0.00 0.00 0.00 41 1007.3
20260509104804 97 355 0.0 4.0 0.00 0.00 0.00 41 1007.3
20260509104703 97 355 0.0 4.0 0.00 0.00 0.00 41 1007.4
20260509104604 97 342 1.0 4.0 0.00 0.00 0.00 41 1007.4
20260509104503 97 350 2.0 4.0 0.00 0.00 0.00 41 1007.4
20260509104402 97 346 2.0 4.0 0.00 0.00 0.00 41 1007.4
20260509104108 97 347 2.0 4.0 0.00 0.00 0.00 42 1007.4
20260509104009 97 325 1.0 2.0 0.00 0.00 0.00 41 1007.4
20260509103904 97 31 1.0 2.0 0.00 0.00 0.00 41 1007.5
20260509103704 97 341 1.0 2.0 0.00 0.00 0.00 42 1007.4
20260509103505 97 328 0.0 2.0 0.00 0.00 0.00 42 1007.4
20260509103405 97 283 0.0 2.0 0.00 0.00 0.00 43 1007.5
20260509103301 97 282 1.0 2.0 0.00 0.00 0.00 42 1007.4
20260509103203 97 282 1.0 3.0 0.00 0.00 0.00 42 1007.5
20260509103102 96 311 1.0 3.0 0.00 0.00 0.00 43 1007.4
20260509102802 96 220 1.0 3.0 0.00 0.00 0.00 43 1007.4
20260509102704 96 233 1.0 3.0 0.00 0.00 0.00 43 1007.5
20260509102603 96 230 1.0 3.0 0.00 0.00 0.00 44 1007.5
20260509102409 96 252 1.0 4.0 0.00 0.00 0.00 43 1007.4
20260509101903 96 236 1.0 4.0 0.00 0.00 0.00 43 1007.5
20260509101802 96 277 2.0 8.0 0.00 0.00 0.00 44 1007.6
20260509101704 96 248 2.0 8.0 0.00 0.00 0.00 43 1007.5
20260509101604 96 210 1.0 8.0 0.00 0.00 0.00 44 1007.6
20260509101504 96 210 0.0 8.0 0.00 0.00 0.00 43 1007.6
20260509101403 96 244 1.0 8.0 0.00 0.00 0.00 43 1007.6
20260509101302 96 244 3.0 8.0 0.00 0.00 0.00 43 1007.6
20260509101204 96 238 3.0 8.0 0.00 0.00 0.00 43 1007.6
20260509101006 96 246 2.0 8.0 0.00 0.00 0.00 43 1007.6
20260509100903 96 255 0.0 4.0 0.00 0.00 0.00 43 1007.7
20260509100802 96 139 0.0 4.0 0.00 0.00 0.00 43 1007.6
20260509100704 96 99 0.0 4.0 0.00 0.00 0.00 42 1007.5
20260509100505 96 147 3.0 5.0 0.00 0.00 0.00 42 1007.7
20260509100406 96 169 3.0 7.0 0.00 0.00 0.00 43 1007.7
20260509100303 96 184 2.0 7.0 0.00 0.00 0.00 43 1007.7
20260509100202 96 265 2.0 7.0 0.00 0.00 0.00 43 1007.7
20260509095905 96 233 2.0 7.0 0.00 0.00 0.00 44 1007.7
20260509095802 96 242 3.0 7.0 0.00 0.00 0.00 44 1007.7
20260509095703 96 231 5.0 7.0 0.00 0.00 0.00 42 1007.8
20260509095604 96 265 5.0 7.0 0.00 0.00 0.00 43 1007.8
20260509095504 96 279 4.0 7.0 0.00 0.00 0.00 43 1007.7
20260509095402 96 265 3.0 7.0 0.00 0.00 0.00 43 1007.8
20260509095305 96 306 3.0 7.0 0.00 0.00 0.00 43 1007.8
20260509095204 96 242 2.0 7.0 0.00 0.00 0.00 43 1007.7
20260509095103 96 303 3.0 7.0 0.00 0.00 0.00 44 1007.8
20260509094903 96 210 3.0 9.0 0.00 0.00 0.00 44 1007.8
20260509094603 96 276 2.0 9.0 0.00 0.00 0.00 43 1007.8
20260509094504 96 294 3.0 9.0 0.00 0.00 0.00 43 1007.9
20260509094402 96 286 3.0 9.0 0.00 0.00 0.00 44 1007.9
20260509094302 96 275 4.0 9.0 0.00 0.00 0.00 43 1007.9
20260509094101 96 209 2.0 9.0 0.00 0.00 0.00 44 1007.9
20260509094005 96 219 3.0 9.0 0.00 0.00 0.00 43 1007.9
20260509093802 96 244 3.0 9.0 0.00 0.00 0.00 44 1008.0
20260509093701 96 248 4.0 9.0 0.00 0.00 0.00 43 1008.0
20260509093602 96 210 5.0 9.0 0.00 0.00 0.00 43 1008.0
20260509093404 96 219 3.0 8.0 0.00 0.00 0.00 44 1007.9
20260509093204 96 169 4.0 9.0 0.00 0.00 0.00 44 1008.0
20260509093103 96 256 3.0 5.0 0.00 0.00 0.00 43 1008.0
20260509093008 96 214 3.0 5.0 0.00 0.00 0.00 44 1008.0
20260509092904 96 239 3.0 5.0 0.00 0.00 0.00 44 1008.0
20260509092704 96 317 1.0 3.0 0.00 0.00 0.00 44 1008.0
20260509092606 96 327 0.0 2.0 0.00 0.00 0.00 44 1008.0
20260509092506 96 328 0.0 4.0 0.00 0.00 0.00 44 1007.9
20260509092404 96 313 0.0 4.0 0.00 0.00 0.00 44 1008.0
20260509092306 96 313 0.0 4.0 0.00 0.00 0.00 45 1008.0
20260509092204 96 346 0.0 4.0 0.00 0.00 0.00 46 1008.0
20260509092103 95 225 1.0 4.0 0.00 0.00 0.00 46 1008.1
20260509092006 95 202 1.0 4.0 0.00 0.00 0.00 45 1008.1
20260509091904 95 240 1.0 5.0 0.00 0.00 0.00 45 1008.0
20260509091802 95 232 1.0 7.0 0.00 0.00 0.00 45 1008.0
20260509091703 95 251 2.0 7.0 0.00 0.00 0.00 45 1008.0
20260509091604 95 240 2.0 7.0 0.00 0.00 0.00 45 1008.0
20260509091507 95 252 2.0 7.0 0.00 0.00 0.00 46 1008.1
20260509091403 95 245 1.0 7.0 0.00 0.00 0.00 45 1008.1
20260509091303 95 276 1.0 7.0 0.00 0.00 0.00 44 1008.1
20260509091201 95 271 2.0 7.0 0.00 0.00 0.00 44 1008.2
20260509091006 95 245 2.0 7.0 0.00 0.00 0.00 44 1008.1
20260509090903 95 214 1.0 7.0 0.00 0.00 0.00 44 1008.2
20260509090802 95 173 2.0 7.0 0.00 0.00 0.00 44 1008.2
20260509090704 95 202 1.0 7.0 0.00 0.00 0.00 44 1008.1
20260509090504 95 239 2.0 7.0 0.00 0.00 0.00 44 1008.2
20260509090402 95 214 4.0 7.0 0.00 0.00 0.00 45 1008.2
20260509090006 94 186 1.0 5.0 0.00 0.00 0.00 45 1008.2
20260509085902 94 320 2.0 5.0 0.00 0.00 0.00 45 1008.3
20260509085802 94 221 3.0 5.0 0.00 0.00 0.00 46 1008.2
20260509085602 94 243 3.0 6.0 0.00 0.00 0.00 45 1008.2
20260509085505 94 223 3.0 6.0 0.00 0.00 0.00 45 1008.2
20260509085402 94 207 2.0 9.0 0.00 0.00 0.00 45 1008.3
20260509085202 94 255 4.0 9.0 0.00 0.00 0.00 45 1008.2
20260509085102 94 245 4.0 9.0 0.00 0.00 0.00 45 1008.2
20260509085005 94 261 3.0 9.0 0.00 0.00 0.00 46 1008.3
20260509084903 94 245 3.0 9.0 0.00 0.00 0.00 45 1008.3
20260509084803 94 213 4.0 9.0 0.00 0.00 0.00 45 1008.2
20260509084702 94 233 4.0 9.0 0.00 0.00 0.00 45 1008.3
20260509084604 94 262 3.0 7.0 0.00 0.00 0.00 45 1008.2
20260509084402 94 188 3.0 7.0 0.00 0.00 0.00 45 1008.4
20260509084302 94 200 4.0 8.0 0.00 0.00 0.00 45 1008.4
20260509084202 94 211 3.0 8.0 0.00 0.00 0.00 45 1008.4
20260509084103 94 236 4.0 8.0 0.00 0.00 0.00 46 1008.4
20260509084007 94 254 5.0 8.0 0.00 0.00 0.00 45 1008.3
20260509083902 94 260 5.0 8.0 0.00 0.00 0.00 46 1008.4
20260509083803 94 267 4.0 8.0 0.00 0.00 0.00 46 1008.4
20260509083702 94 238 4.0 8.0 0.00 0.00 0.00 45 1008.4
20260509083602 94 254 4.0 8.0 0.00 0.00 0.00 45 1008.5
20260509083504 94 215 3.0 8.0 0.00 0.00 0.00 45 1008.6
20260509083402 94 243 1.0 4.0 0.00 0.00 0.00 45 1008.6
20260509083302 94 218 1.0 4.0 0.00 0.00 0.00 45 1008.6
20260509083202 94 227 2.0 4.0 0.00 0.00 0.00 45 1008.5
20260509083102 94 231 3.0 4.0 0.00 0.00 0.00 45 1008.6
20260509083005 94 252 3.0 4.0 0.00 0.00 0.00 44 1008.6
20260509082902 94 258 2.0 5.0 0.00 0.00 0.00 45 1008.6
20260509082702 94 250 1.0 9.0 0.00 0.00 0.00 45 1008.7
20260509082602 94 219 1.0 9.0 0.00 0.00 0.00 45 1008.7
20260509082505 94 200 2.0 9.0 0.00 0.00 0.00 44 1008.7
20260509082401 94 229 2.0 9.0 0.00 0.00 0.00 44 1008.8
20260509082301 94 178 3.0 9.0 0.00 0.00 0.00 45 1008.7
20260509082102 94 225 3.0 9.0 0.00 0.00 0.00 45 1008.8
20260509082006 94 226 4.0 9.0 0.00 0.00 0.00 45 1008.8
20260509081904 94 209 4.0 9.0 0.00 0.00 0.00 45 1008.8
20260509081803 95 248 4.0 8.0 0.00 0.00 0.00 45 1008.8
20260509081700 95 264 3.0 7.0 0.00 0.00 0.00 45 1008.9
20260509081603 95 212 3.0 7.0 0.00 0.00 0.00 45 1008.9
20260509081504 95 267 3.0 7.0 0.00 0.00 0.00 44 1008.8
20260509081302 95 271 3.0 6.0 0.00 0.00 0.00 44 1008.9
20260509081204 95 223 2.0 6.0 0.00 0.00 0.00 44 1008.9
20260509081102 95 247 2.0 6.0 0.00 0.00 0.00 45 1008.9
20260509081005 95 196 2.0 5.0 0.00 0.00 0.00 46 1008.9
20260509080902 95 242 3.0 6.0 0.00 0.00 0.00 44 1009.0
20260509080803 95 198 3.0 7.0 0.00 0.00 0.00 45 1009.0
20260509080702 95 209 2.0 7.0 0.00 0.00 0.00 45 1009.0
20260509080602 95 208 2.0 7.0 0.00 0.00 0.00 45 1009.1
20260509080403 95 238 2.0 7.0 0.00 0.00 0.00 45 1009.0
20260509080302 95 215 3.0 7.0 0.00 0.00 0.00 46 1009.0
20260509080203 95 215 4.0 7.0 0.00 0.00 0.00 44 1009.1
20260509075903 95 140 1.0 4.0 0.00 0.00 0.00 44 1009.1
20260509075803 95 109 1.0 4.0 0.00 0.00 0.00 44 1009.2
20260509075703 95 194 2.0 4.0 0.00 0.00 0.00 45 1009.1
20260509075603 95 224 2.0 4.0 0.00 0.00 0.00 45 1009.1
20260509075504 95 217 2.0 7.0 0.00 0.00 0.00 43 1009.1
20260509075403 95 189 2.0 7.0 0.00 0.00 0.00 44 1009.1
20260509075103 95 275 1.0 7.0 0.00 0.00 0.00 44 1009.2
20260509075007 95 276 2.0 7.0 0.00 0.00 0.00 44 1009.2
20260509074904 95 167 3.0 7.0 0.00 0.00 0.00 44 1009.2
20260509074803 95 198 3.0 7.0 0.00 0.00 0.00 43 1009.3
20260509074604 95 126 3.0 7.0 0.00 0.00 0.00 43 1009.3
20260509074505 95 163 4.0 7.0 0.00 0.00 0.00 44 1009.3
20260509074403 95 144 4.0 7.0 0.00 0.00 0.00 43 1009.3
20260509074305 96 186 2.0 7.0 0.00 0.00 0.00 45 1009.3
20260509074205 96 243 0.0 3.0 0.00 0.00 0.00 44 1009.3
20260509074104 95 289 1.0 3.0 0.00 0.00 0.00 44 1009.4
20260509074008 95 279 1.0 3.0 0.00 0.00 0.00 44 1009.4
20260509073903 95 331 1.0 3.0 0.00 0.00 0.00 44 1009.4
20260509073806 95 275 1.0 4.0 0.00 0.00 0.00 44 1009.4
20260509073705 95 307 1.0 4.0 0.00 0.00 0.00 43 1009.4
20260509073508 95 238 0.0 4.0 0.00 0.00 0.00 44 1009.4
20260509073405 95 238 0.0 4.0 0.00 0.00 0.00 43 1009.5
20260509073203 95 9 1.0 4.0 0.00 0.00 0.00 43 1009.5
20260509073103 95 303 2.0 4.0 0.00 0.00 0.00 43 1009.6
20260509073008 94 47 2.0 4.0 0.00 0.00 0.00 43 1009.6
20260509072902 94 360 0.0 3.0 0.00 0.00 0.00 44 1009.6
20260509072805 94 360 0.0 2.0 0.00 0.00 0.00 44 1009.6
20260509072603 94 355 0.0 2.0 0.00 0.00 0.00 44 1009.7
20260509072506 94 355 1.0 2.0 0.00 0.00 0.00 43 1009.7
20260509072306 94 343 0.0 3.0 0.00 0.00 0.00 45 1009.7
20260509072205 94 303 0.0 3.0 0.00 0.00 0.00 45 1009.7
20260509072105 94 302 0.0 3.0 0.00 0.00 0.00 45 1009.7
20260509072008 94 324 1.0 3.0 0.00 0.00 0.00 45 1009.7
20260509071904 93 323 1.0 3.0 0.00 0.00 0.00 45 1009.7
20260509071805 93 275 1.0 3.0 0.00 0.00 0.00 45 1009.7
20260509071705 93 297 1.0 4.0 0.00 0.00 0.00 46 1009.8
20260509071605 93 291 1.0 5.0 0.00 0.00 0.00 45 1009.8
20260509071507 93 289 2.0 5.0 0.00 0.00 0.00 45 1009.8
20260509071403 93 293 1.0 5.0 0.00 0.00 0.00 44 1009.8
20260509071304 93 90 1.0 5.0 0.00 0.00 0.00 45 1009.8
20260509071203 93 171 1.0 5.0 0.00 0.00 0.00 45 1009.8
20260509070806 93 216 2.0 5.0 0.00 0.00 0.00 46 1009.8
20260509070703 93 235 1.0 8.0 0.00 0.00 0.00 45 1009.9
20260509070603 93 166 1.0 8.0 0.00 0.00 0.00 45 1009.9
20260509070506 92 144 2.0 8.0 0.00 0.00 0.00 45 1009.9
20260509070404 92 152 2.0 8.0 0.00 0.00 0.00 45 1009.9
20260509070303 93 181 1.0 8.0 0.00 0.00 0.00 45 1009.9
20260509070208 93 220 2.0 8.0 0.00 0.00 0.00 45 1009.9
20260509070101 93 238 4.0 8.0 0.00 0.00 0.00 45 1009.9
20260509070007 93 190 5.0 8.0 0.00 0.00 0.00 44 1010.0
20260509065905 93 197 3.0 9.0 0.00 0.00 0.00 46 1009.9
20260509065803 93 276 2.0 4.0 0.00 0.00 0.00 45 1010.0
20260509065703 92 277 2.0 4.0 0.00 0.00 0.00 45 1010.0
20260509065505 92 304 1.0 6.0 0.00 0.00 0.00 45 1010.0
20260509065306 92 5 1.0 6.0 0.00 0.00 0.00 44 1010.1
20260509065203 92 58 1.0 6.0 0.00 0.00 0.00 44 1010.1
20260509065102 92 76 2.0 6.0 0.00 0.00 0.00 44 1010.2
20260509065006 92 44 1.0 6.0 0.00 0.00 0.00 44 1010.2
20260509064704 92 228 2.0 6.0 0.00 0.00 0.00 44 1010.2
20260509064601 92 219 2.0 6.0 0.00 0.00 0.00 45 1010.2
20260509064507 92 267 3.0 6.0 0.00 0.00 0.00 45 1010.2
20260509064302 92 217 2.0 6.0 0.00 0.00 0.00 46 1010.3
20260509064204 92 158 3.0 6.0 0.00 0.00 0.00 46 1010.3
20260509063905 92 71 2.0 6.0 0.00 0.00 0.00 46 1010.3
20260509063703 92 78 2.0 6.0 0.00 0.00 0.00 47 1010.4
20260509063604 92 113 1.0 4.0 0.00 0.00 0.00 47 1010.3
20260509063403 92 188 1.0 4.0 0.00 0.00 0.00 48 1010.3
20260509063305 92 277 1.0 5.0 0.00 0.00 0.00 48 1010.4
20260509063059 91 219 2.0 8.0 0.00 0.00 0.00 47 1010.5
20260509063005 91 219 2.0 8.0 0.00 0.00 0.00 47 1010.5
20260509062902 91 159 2.0 8.0 0.00 0.00 0.00 47 1010.5
20260509062603 91 117 4.0 8.0 0.00 0.00 0.00 47 1010.5
20260509062306 91 136 3.0 6.0 0.00 0.00 0.00 48 1010.5
20260509062201 91 75 2.0 5.0 0.00 0.00 0.00 47 1010.5
20260509062105 91 91 1.0 4.0 0.00 0.00 0.00 47 1010.6
20260509062007 91 129 1.0 4.0 0.00 0.00 0.00 47 1010.6
20260509061903 91 99 1.0 4.0 0.00 0.00 0.00 47 1010.5
20260509061804 91 40 0.0 4.0 0.00 0.00 0.00 48 1010.6
20260509061703 91 338 0.0 4.0 0.00 0.00 0.00 48 1010.6
20260509061602 90 131 1.0 4.0 0.00 0.00 0.00 47 1010.5
20260509061401 90 111 3.0 5.0 0.00 0.00 0.00 47 1010.7
20260509061104 90 86 1.0 9.0 0.00 0.00 0.00 47 1010.6
20260509061005 90 57 1.0 9.0 0.00 0.00 0.00 47 1010.6
20260509060804 90 122 1.0 9.0 0.00 0.00 0.00 47 1010.7
20260509060703 90 128 3.0 9.0 0.00 0.00 0.00 47 1010.6
20260509060603 90 141 4.0 9.0 0.00 0.00 0.00 47 1010.7
20260509060506 90 146 6.0 9.0 0.00 0.00 0.00 47 1010.7
20260509060403 90 110 7.0 9.0 0.00 0.00 0.00 48 1010.7
20260509060203 90 142 2.0 7.0 0.00 0.00 0.00 48 1010.7
20260509060008 90 150 0.0 4.0 0.00 0.00 0.00 48 1010.8
20260509055903 90 31 0.0 4.0 0.00 0.00 0.00 48 1010.9
20260509055805 90 31 1.0 5.0 0.00 0.00 0.00 47 1010.8
20260509055704 90 355 1.0 5.0 0.00 0.00 0.00 47 1010.8
20260509055601 90 38 2.0 8.0 0.00 0.00 0.00 47 1010.8
20260509055506 90 144 2.0 8.0 0.00 0.00 0.00 48 1010.8
20260509055402 90 107 2.0 8.0 0.00 0.00 0.00 47 1010.8
20260509055306 90 98 2.0 8.0 0.00 0.00 0.00 47 1010.8
20260509055202 90 134 3.0 8.0 0.00 0.00 0.00 47 1010.9
20260509055105 90 118 4.0 8.0 0.00 0.00 0.00 47 1010.8
20260509055005 90 140 4.0 8.0 0.00 0.00 0.00 48 1010.8
20260509054902 90 168 5.0 8.0 0.00 0.00 0.00 48 1010.8
20260509054803 90 126 5.0 8.0 0.00 0.00 0.00 48 1010.9
20260509054704 90 190 3.0 7.0 0.00 0.00 0.00 48 1010.9
20260509054605 90 144 3.0 7.0 0.00 0.00 0.00 48 1010.9
20260509054505 89 181 2.0 7.0 0.00 0.00 0.00 48 1010.9
20260509054202 89 108 2.0 7.0 0.00 0.00 0.00 48 1010.9
20260509054103 89 145 2.0 7.0 0.00 0.00 0.00 48 1010.9
20260509054005 89 116 1.0 7.0 0.00 0.00 0.00 48 1010.9
20260509053903 89 111 1.0 7.0 0.00 0.00 0.00 48 1010.9
20260509053801 89 110 3.0 7.0 0.00 0.00 0.00 48 1010.9
20260509053604 89 150 3.0 7.0 0.00 0.00 0.00 48 1011.0
20260509053504 89 178 4.0 7.0 0.00 0.00 0.00 48 1010.9
20260509053403 89 123 3.0 7.0 0.00 0.00 0.00 49 1011.0
20260509053303 89 180 2.0 7.0 0.00 0.00 0.00 49 1010.9
20260509053203 89 135 2.0 7.0 0.00 0.00 0.00 49 1011.0
20260509053104 89 183 4.0 7.0 0.00 0.00 0.00 49 1011.0
20260509053003 89 142 4.0 7.0 0.00 0.00 0.00 49 1011.0
20260509052903 89 172 2.0 5.0 0.00 0.00 0.00 49 1011.0
20260509052801 89 161 2.0 5.0 0.00 0.00 0.00 49 1011.1
20260509052704 89 140 2.0 5.0 0.00 0.00 0.00 49 1011.0
20260509052506 89 131 3.0 5.0 0.00 0.00 0.00 48 1011.1
20260509052404 88 131 3.0 6.0 0.00 0.00 0.00 49 1011.1
20260509052301 88 126 3.0 6.0 0.00 0.00 0.00 49 1011.1
20260509052205 88 173 3.0 6.0 0.00 0.00 0.00 49 1011.1
20260509052007 88 154 2.0 6.0 0.00 0.00 0.00 50 1011.1
20260509051904 88 166 1.0 6.0 0.00 0.00 0.00 50 1011.1
20260509051804 88 165 2.0 6.0 0.00 0.00 0.00 50 1011.1
20260509051603 88 185 2.0 7.0 0.00 0.00 0.00 51 1011.1
20260509051504 88 188 2.0 7.0 0.00 0.00 0.00 51 1011.1
20260509051403 88 186 3.0 7.0 0.00 0.00 0.00 49 1011.1
20260509051301 88 161 4.0 7.0 0.00 0.00 0.00 49 1011.2
20260509051202 88 142 4.0 7.0 0.00 0.00 0.00 50 1011.2
20260509051103 88 186 3.0 6.0 0.00 0.00 0.00 50 1011.2
20260509051006 88 184 3.0 7.0 0.00 0.00 0.00 50 1011.1
20260509050904 88 74 3.0 7.0 0.00 0.00 0.00 50 1011.2
20260509050804 88 52 3.0 7.0 0.00 0.00 0.00 49 1011.2
20260509050703 88 118 4.0 7.0 0.00 0.00 0.00 49 1011.3
20260509050603 88 121 4.0 7.0 0.00 0.00 0.00 50 1011.2
20260509050506 88 134 2.0 7.0 0.00 0.00 0.00 50 1011.3
20260509050003 87 184 2.0 5.0 0.00 0.00 0.00 51 1011.2
20260509045902 87 173 3.0 7.0 0.00 0.00 0.00 51 1011.2
20260509045803 87 186 3.0 7.0 0.00 0.00 0.00 51 1011.2
20260509045603 87 109 3.0 7.0 0.00 0.00 0.00 51 1011.3
20260509045505 87 161 3.0 9.0 0.00 0.00 0.00 51 1011.3
20260509045400 87 134 3.0 9.0 0.00 0.00 0.00 51 1011.3
20260509045306 87 132 3.0 9.0 0.00 0.00 0.00 51 1011.3
20260509045203 87 109 4.0 9.0 0.00 0.00 0.00 51 1011.2
20260509045004 87 143 2.0 9.0 0.00 0.00 0.00 51 1011.2
20260509044902 87 125 4.0 9.0 0.00 0.00 0.00 51 1011.3
20260509044801 87 98 5.0 9.0 0.00 0.00 0.00 51 1011.3
20260509044702 87 126 4.0 9.0 0.00 0.00 0.00 52 1011.3
20260509044603 87 107 2.0 7.0 0.00 0.00 0.00 52 1011.4
20260509044503 87 117 3.0 7.0 0.00 0.00 0.00 52 1011.4
20260509044404 87 128 4.0 7.0 0.00 0.00 0.00 52 1011.3
20260509044302 87 129 4.0 7.0 0.00 0.00 0.00 52 1011.4
20260509044202 87 129 4.0 5.0 0.00 0.00 0.00 52 1011.4
20260509044102 87 109 3.0 6.0 0.00 0.00 0.00 52 1011.4
20260509043902 86 138 4.0 6.0 0.00 0.00 0.00 52 1011.3
20260509043804 86 137 4.0 6.0 0.00 0.00 0.00 52 1011.5
20260509043703 86 169 4.0 6.0 0.00 0.00 0.00 53 1011.4
20260509043504 86 161 2.0 6.0 0.00 0.00 0.00 53 1011.4
20260509043400 86 126 3.0 6.0 0.00 0.00 0.00 53 1011.4
20260509043304 86 83 3.0 6.0 0.00 0.00 0.00 53 1011.4
20260509043201 86 123 4.0 6.0 0.00 0.00 0.00 52 1011.4
20260509043003 86 140 2.0 5.0 0.00 0.00 0.00 53 1011.4
20260509042900 86 148 2.0 6.0 0.00 0.00 0.00 53 1011.3
20260509042803 86 132 3.0 6.0 0.00 0.00 0.00 53 1011.4
20260509042701 86 127 4.0 6.0 0.00 0.00 0.00 52 1011.4
20260509042601 86 107 4.0 6.0 0.00 0.00 0.00 53 1011.4
20260509042505 86 140 4.0 6.0 0.00 0.00 0.00 52 1011.4
20260509042402 86 137 3.0 6.0 0.00 0.00 0.00 54 1011.4
20260509042202 86 165 2.0 6.0 0.00 0.00 0.00 54 1011.3
20260509042102 86 74 2.0 7.0 0.00 0.00 0.00 54 1011.4
20260509041901 85 169 3.0 7.0 0.00 0.00 0.00 54 1011.4
20260509041803 85 169 3.0 7.0 0.00 0.00 0.00 54 1011.3
20260509041702 85 183 3.0 7.0 0.00 0.00 0.00 54 1011.3
20260509041602 85 173 3.0 7.0 0.00 0.00 0.00 54 1011.3
20260509041504 85 144 3.0 7.0 0.00 0.00 0.00 54 1011.2
20260509041402 85 111 4.0 7.0 0.00 0.00 0.00 54 1011.3
20260509041303 85 140 3.0 7.0 0.00 0.00 0.00 54 1011.3
20260509041203 85 144 2.0 7.0 0.00 0.00 0.00 55 1011.3
20260509041102 85 184 3.0 7.0 0.00 0.00 0.00 55 1011.8
20260509040903 85 127 3.0 6.0 0.00 0.00 0.00 54 1011.3
20260509040803 85 176 3.0 6.0 0.00 0.00 0.00 55 1011.3
20260509040702 85 167 2.0 5.0 0.00 0.00 0.00 55 1011.2
20260509040603 84 209 2.0 5.0 0.00 0.00 0.00 55 1011.3
20260509040507 84 153 2.0 7.0 0.00 0.00 0.00 55 1011.3
20260509040359 84 168 2.0 7.0 0.00 0.00 0.00 55 1011.2
20260509040302 84 206 2.0 7.0 0.00 0.00 0.00 55 1011.2
20260509040203 84 183 2.0 7.0 0.00 0.00 0.00 54 1011.2
20260509040006 84 168 2.0 7.0 0.00 0.00 0.00 54 1011.2
20260509035903 84 182 3.0 7.0 0.00 0.00 0.00 55 1011.2
20260509035703 84 189 5.0 7.0 0.00 0.00 0.00 55 1011.2
20260509035503 84 177 5.0 7.0 0.00 0.00 0.00 55 1011.2
20260509035401 84 188 3.0 7.0 0.00 0.00 0.00 55 1011.2
20260509035305 84 204 3.0 7.0 0.00 0.00 0.00 56 1011.2
20260509035159 83 209 2.0 7.0 0.00 0.00 0.00 56 1011.2
20260509035103 83 176 2.0 7.0 0.00 0.00 0.00 56 1011.3
20260509035006 83 142 3.0 7.0 0.00 0.00 0.00 56 1011.3
20260509034903 83 138 4.0 7.0 0.00 0.00 0.00 55 1011.2
20260509034802 83 170 4.0 7.0 0.00 0.00 0.00 56 1011.3
20260509034702 83 175 4.0 7.0 0.00 0.00 0.00 56 1011.2
20260509034601 83 166 3.0 7.0 0.00 0.00 0.00 56 1011.2
20260509034401 83 168 3.0 5.0 0.00 0.00 0.00 56 1011.2
20260509034301 83 155 3.0 5.0 0.00 0.00 0.00 56 1011.2
20260509034202 83 185 3.0 5.0 0.00 0.00 0.00 56 1011.3
20260509034101 83 126 3.0 4.0 0.00 0.00 0.00 56 1011.3
20260509034004 83 128 3.0 4.0 0.00 0.00 0.00 57 1011.3
20260509033903 83 129 2.0 4.0 0.00 0.00 0.00 57 1011.2
20260509033801 83 130 1.0 3.0 0.00 0.00 0.00 57 1011.2
20260509033703 83 139 1.0 3.0 0.00 0.00 0.00 58 1011.3
20260509033503 83 257 2.0 3.0 0.00 0.00 0.00 57 1011.3
20260509033402 83 165 2.0 3.0 0.00 0.00 0.00 57 1011.3
20260509033301 83 163 1.0 3.0 0.00 0.00 0.00 57 1011.2
20260509033201 83 171 1.0 3.0 0.00 0.00 0.00 58 1011.2
20260509033101 83 148 1.0 3.0 0.00 0.00 0.00 57 1011.2
20260509032858 83 142 1.0 4.0 0.00 0.00 0.00 57 1011.2
20260509032802 83 128 1.0 4.0 0.00 0.00 0.00 57 1011.2
20260509032701 83 130 1.0 4.0 0.00 0.00 0.00 57 1011.3
20260509032603 83 159 1.0 4.0 0.00 0.00 0.00 57 1011.2
20260509032505 83 174 1.0 4.0 0.00 0.00 0.00 57 1011.2
20260509032406 83 148 2.0 4.0 0.00 0.00 0.00 57 1011.3
20260509032202 83 167 3.0 4.0 0.00 0.00 0.00 57 1011.2
20260509032102 83 165 3.0 5.0 0.00 0.00 0.00 57 1011.2
20260509032004 83 150 2.0 5.0 0.00 0.00 0.00 57 1011.1
20260509031902 83 171 2.0 5.0 0.00 0.00 0.00 57 1011.2
20260509031801 83 185 3.0 5.0 0.00 0.00 0.00 57 1011.2
20260509031702 83 163 3.0 4.0 0.00 0.00 0.00 57 1011.2
20260509031603 83 187 2.0 4.0 0.00 0.00 0.00 58 1011.2
20260509031505 83 186 2.0 4.0 0.00 0.00 0.00 58 1011.2
20260509031400 83 176 3.0 5.0 0.00 0.00 0.00 57 1011.2
20260509031302 83 176 4.0 5.0 0.00 0.00 0.00 57 1011.2
20260509031103 83 164 4.0 5.0 0.00 0.00 0.00 58 1011.1
20260509031004 83 157 2.0 5.0 0.00 0.00 0.00 59 1011.1
20260509030903 83 167 1.0 5.0 0.00 0.00 0.00 59 1011.1
20260509030803 83 205 2.0 5.0 0.00 0.00 0.00 59 1011.1
20260509030700 83 187 3.0 5.0 0.00 0.00 0.00 59 1011.1
20260509030504 83 207 2.0 5.0 0.00 0.00 0.00 60 1011.0
20260509030405 83 194 2.0 4.0 0.00 0.00 0.00 60 1011.0
20260509030009 82 182 2.0 3.0 0.00 0.00 0.00 60 1010.9
20260509025903 82 182 1.0 3.0 0.00 0.00 0.00 61 1010.9
20260509025802 82 160 0.0 1.0 0.00 0.00 0.00 61 1010.9
20260509025705 82 143 0.0 1.0 0.00 0.00 0.00 62 1010.9
20260509025602 82 129 0.0 2.0 0.00 0.00 0.00 62 1010.8
20260509025404 82 62 0.0 2.0 0.00 0.00 0.00 63 1010.8
20260509025306 82 62 0.0 2.0 0.00 0.00 0.00 63 1010.8
20260509025204 82 187 0.0 2.0 0.00 0.00 0.00 63 1010.8
20260509025006 82 100 0.0 2.0 0.00 0.00 0.00 63 1010.8
20260509024903 82 71 1.0 2.0 0.00 0.00 0.00 63 1010.8
20260509024804 81 113 1.0 2.0 0.00 0.00 0.00 62 1010.7
20260509024701 81 121 1.0 2.0 0.00 0.00 0.00 63 1010.7
20260509024604 81 124 1.0 2.0 0.00 0.00 0.00 63 1010.7
20260509024507 81 115 1.0 2.0 0.00 0.00 0.00 62 1010.6
20260509024403 81 106 1.0 2.0 0.00 0.00 0.00 62 1010.6
20260509024303 81 103 0.0 1.0 0.00 0.00 0.00 63 1010.6
20260509024203 81 24 0.0 0.0 0.00 0.00 0.00 64 1010.6
20260509024104 81 24 0.0 0.0 0.00 0.00 0.00 63 1010.7
20260509023804 81 24 0.0 0.0 0.00 0.00 0.00 64 1010.5
20260509023403 81 24 0.0 0.0 0.00 0.00 0.00 65 1010.4
20260509023303 81 24 0.0 0.0 0.00 0.00 0.00 64 1010.5
20260509023204 81 24 0.0 0.0 0.00 0.00 0.00 64 1010.5
20260509023103 81 24 0.0 0.0 0.00 0.00 0.00 65 1010.4
20260509023007 81 24 0.0 0.0 0.00 0.00 0.00 65 1010.4
20260509022904 81 24 0.0 1.0 0.00 0.00 0.00 65 1010.4
20260509022804 81 24 0.0 1.0 0.00 0.00 0.00 65 1010.4
20260509022704 81 24 0.0 2.0 0.00 0.00 0.00 65 1010.4
20260509022604 81 24 0.0 2.0 0.00 0.00 0.00 65 1010.3
20260509022505 81 24 0.0 2.0 0.00 0.00 0.00 65 1010.3
20260509022403 81 238 0.0 2.0 0.00 0.00 0.00 65 1010.3
20260509022306 81 217 0.0 2.0 0.00 0.00 0.00 65 1010.3
20260509022204 81 198 0.0 2.0 0.00 0.00 0.00 65 1010.3
20260509022103 81 198 1.0 2.0 0.00 0.00 0.00 65 1010.3
20260509022006 81 198 0.0 2.0 0.00 0.00 0.00 65 1010.3
20260509021704 81 191 0.0 1.0 0.00 0.00 0.00 64 1010.3
20260509021603 81 150 0.0 0.0 0.00 0.00 0.00 64 1010.4
20260509021505 81 150 0.0 0.0 0.00 0.00 0.00 64 1010.3
20260509021403 81 150 0.0 0.0 0.00 0.00 0.00 64 1010.4
20260509021301 81 119 0.0 0.0 0.00 0.00 0.00 64 1010.3
20260509021205 81 119 0.0 0.0 0.00 0.00 0.00 64 1010.3
20260509021007 80 119 0.0 0.0 0.00 0.00 0.00 63 1010.3
20260509020901 80 119 0.0 0.0 0.00 0.00 0.00 63 1010.2
20260509020803 80 119 0.0 0.0 0.00 0.00 0.00 63 1010.2
20260509020603 80 119 0.0 1.0 0.00 0.00 0.00 63 1010.2
20260509020503 80 119 0.0 1.0 0.00 0.00 0.00 63 1010.2
20260509020302 80 119 0.0 2.0 0.00 0.00 0.00 63 1010.1
20260509020202 80 95 0.0 2.0 0.00 0.00 0.00 63 1010.1
20260509020010 80 92 0.0 2.0 0.00 0.00 0.00 63 1010.2
20260509015902 80 126 0.0 2.0 0.00 0.00 0.00 63 1010.1
20260509015802 80 132 0.0 2.0 0.00 0.00 0.00 63 1010.1
20260509015705 80 77 1.0 2.0 0.00 0.00 0.00 63 1010.1
20260509015601 80 102 0.0 2.0 0.00 0.00 0.00 63 1010.0
20260509015504 80 118 0.0 3.0 0.00 0.00 0.00 63 1010.0
20260509015306 80 116 0.0 3.0 0.00 0.00 0.00 63 1010.0
20260509015203 80 107 0.0 3.0 0.00 0.00 0.00 63 1010.0
20260509015103 80 107 0.0 3.0 0.00 0.00 0.00 63 1009.9
20260509015005 80 107 1.0 3.0 0.00 0.00 0.00 63 1009.9
20260509014901 80 100 1.0 3.0 0.00 0.00 0.00 63 1010.0
20260509014804 80 119 1.0 3.0 0.00 0.00 0.00 63 1009.9
20260509014704 80 125 2.0 3.0 0.00 0.00 0.00 63 1009.9
20260509014602 80 126 1.0 3.0 0.00 0.00 0.00 63 1010.0
20260509014402 80 120 1.0 2.0 0.00 0.00 0.00 63 1009.9
20260509014301 80 96 1.0 2.0 0.00 0.00 0.00 63 1009.9
20260509014203 80 115 1.0 2.0 0.00 0.00 0.00 63 1009.8
20260509014102 80 88 1.0 2.0 0.00 0.00 0.00 64 1010.0
20260509014007 79 90 1.0 2.0 0.00 0.00 0.00 64 1010.0
20260509013903 79 107 1.0 2.0 0.00 0.00 0.00 64 1009.9
20260509013801 79 118 1.0 2.0 0.00 0.00 0.00 64 1009.9
20260509013701 79 109 1.0 2.0 0.00 0.00 0.00 64 1009.9
20260509013604 79 123 1.0 2.0 0.00 0.00 0.00 64 1009.9
20260509013204 79 128 0.0 1.0 0.00 0.00 0.00 64 1009.8
20260509013102 79 115 0.0 1.0 0.00 0.00 0.00 64 1009.8
20260509013004 79 113 0.0 2.0 0.00 0.00 0.00 65 1009.8
20260509012903 79 85 0.0 2.0 0.00 0.00 0.00 65 1009.8
20260509012803 79 78 0.0 2.0 0.00 0.00 0.00 65 1009.8
20260509012704 79 101 0.0 2.0 0.00 0.00 0.00 65 1009.8
20260509012604 79 114 0.0 2.0 0.00 0.00 0.00 65 1009.8
20260509012505 79 114 0.0 2.0 0.00 0.00 0.00 65 1009.8
20260509012404 79 80 0.0 2.0 0.00 0.00 0.00 65 1009.8
20260509012202 79 82 1.0 2.0 0.00 0.00 0.00 65 1009.8
20260509012104 79 80 1.0 2.0 0.00 0.00 0.00 65 1009.8
20260509012005 79 93 1.0 2.0 0.00 0.00 0.00 65 1009.7
20260509011804 79 63 1.0 2.0 0.00 0.00 0.00 65 1009.7
20260509011703 79 123 1.0 2.0 0.00 0.00 0.00 65 1009.7
20260509011604 79 83 1.0 2.0 0.00 0.00 0.00 65 1009.7
20260509011505 78 96 0.0 2.0 0.00 0.00 0.00 65 1009.7
20260509011406 78 29 0.0 2.0 0.00 0.00 0.00 65 1009.7
20260509011203 78 101 0.0 2.0 0.00 0.00 0.00 65 1009.6
20260509011104 78 99 1.0 2.0 0.00 0.00 0.00 66 1009.7
20260509011006 78 121 1.0 2.0 0.00 0.00 0.00 66 1009.6
20260509010903 78 136 0.0 2.0 0.00 0.00 0.00 66 1009.6
20260509010804 78 121 1.0 2.0 0.00 0.00 0.00 66 1009.6
20260509010704 78 121 1.0 2.0 0.00 0.00 0.00 66 1009.7
20260509010505 78 128 0.0 1.0 0.00 0.00 0.00 66 1009.6
20260509010405 78 140 0.0 2.0 0.00 0.00 0.00 66 1009.6
20260509010302 78 140 0.0 2.0 0.00 0.00 0.00 66 1009.6
20260509010203 78 132 0.0 2.0 0.00 0.00 0.00 66 1009.6
20260509010105 78 115 0.0 2.0 0.00 0.00 0.00 66 1009.5
20260509010007 78 115 0.0 2.0 0.00 0.00 0.00 66 1009.5
20260509005903 78 115 0.0 2.0 0.00 0.00 0.00 66 1009.5
20260509005703 78 171 1.0 2.0 0.00 0.00 0.00 66 1009.5
20260509005604 78 153 1.0 2.0 0.00 0.00 0.00 66 1009.5
20260509005506 78 159 0.0 2.0 0.00 0.00 0.00 66 1009.5
20260509005402 78 159 0.0 3.0 0.00 0.00 0.00 66 1009.4
20260509005204 78 92 0.0 3.0 0.00 0.00 0.00 66 1009.4
20260509005102 78 90 0.0 3.0 0.00 0.00 0.00 66 1009.4
20260509005006 78 90 0.0 3.0 0.00 0.00 0.00 66 1009.4
20260509004903 78 81 0.0 3.0 0.00 0.00 0.00 66 1009.4
20260509004801 78 82 1.0 3.0 0.00 0.00 0.00 66 1009.4
20260509004604 78 106 1.0 2.0 0.00 0.00 0.00 66 1009.4
20260509004403 78 80 0.0 2.0 0.00 0.00 0.00 66 1009.3
20260509004303 78 93 0.0 2.0 0.00 0.00 0.00 66 1009.4
20260509004203 78 86 0.0 2.0 0.00 0.00 0.00 66 1009.4
20260509004101 78 109 0.0 2.0 0.00 0.00 0.00 66 1009.4
20260509004006 78 109 0.0 2.0 0.00 0.00 0.00 66 1009.4
20260509003802 78 108 1.0 2.0 0.00 0.00 0.00 66 1009.4
20260509003703 78 86 1.0 2.0 0.00 0.00 0.00 66 1009.3
20260509003506 78 88 0.0 1.0 0.00 0.00 0.00 66 1009.4
20260509003401 78 138 0.0 1.0 0.00 0.00 0.00 66 1009.4
20260509003303 78 80 0.0 1.0 0.00 0.00 0.00 66 1009.3
20260509003203 78 84 0.0 1.0 0.00 0.00 0.00 66 1009.3
20260509003101 78 87 0.0 1.0 0.00 0.00 0.00 66 1009.2
20260509003007 78 88 0.0 2.0 0.00 0.00 0.00 66 1009.3
20260509002902 78 71 0.0 2.0 0.00 0.00 0.00 66 1009.2
20260509002802 78 72 0.0 2.0 0.00 0.00 0.00 66 1009.2
20260509002703 78 80 0.0 2.0 0.00 0.00 0.00 66 1009.2
20260509002603 78 50 0.0 2.0 0.00 0.00 0.00 66 1009.2
20260509002504 78 67 0.0 3.0 0.00 0.00 0.00 66 1009.2
20260509002402 78 88 0.0 3.0 0.00 0.00 0.00 66 1009.2
20260509002306 78 69 0.0 3.0 0.00 0.00 0.00 66 1009.2
20260509002205 78 92 0.0 3.0 0.00 0.00 0.00 66 1009.2
20260509002104 78 26 0.0 4.0 0.00 0.00 0.00 66 1009.2
20260509001904 78 87 0.0 4.0 0.00 0.00 0.00 66 1009.2
20260509001804 78 112 1.0 4.0 0.00 0.00 0.00 66 1009.1
20260509001703 78 58 1.0 4.0 0.00 0.00 0.00 66 1009.1
20260509001506 78 54 1.0 4.0 0.00 0.00 0.00 66 1009.1
20260509001403 79 147 1.0 4.0 0.00 0.00 0.00 66 1009.1
20260509001302 79 139 1.0 4.0 0.00 0.00 0.00 66 1009.1
20260509001203 79 139 0.0 2.0 0.00 0.00 0.00 66 1009.0
20260509001102 79 138 0.0 2.0 0.00 0.00 0.00 66 1009.0
20260509001004 79 132 0.0 2.0 0.00 0.00 0.00 66 1009.0
20260509000902 79 121 0.0 2.0 0.00 0.00 0.00 66 1009.0
20260509000803 79 116 0.0 2.0 0.00 0.00 0.00 66 1009.0
20260509000602 79 57 1.0 2.0 0.00 0.00 0.00 66 1008.9
20260509000505 79 78 1.0 2.0 0.00 0.00 0.00 66 1008.9
20260509000403 79 95 1.0 2.0 0.00 0.00 0.00 65 1008.9
20260509000204 79 91 0.0 2.0 0.00 0.00 0.00 65 1008.9
20260509000008 79 111 0.0 1.0 0.00 0.00 0.00 65 1008.8
20260508235902 79 95 0.0 4.0 0.00 0.00 0.00 65 1008.9
20260508235802 79 349 0.0 4.0 0.00 0.00 0.00 65 1008.8
20260508235602 79 42 0.0 4.0 0.00 0.00 0.00 65 1008.8
20260508235504 79 42 0.0 4.0 0.00 0.00 0.00 65 1008.7
20260508235403 79 49 0.0 4.0 0.00 0.00 0.00 65 1008.7
20260508235305 79 49 1.0 4.0 0.00 0.00 0.00 65 1008.8
20260508235202 79 77 1.0 4.0 0.00 0.00 0.00 65 1008.7
20260508235102 79 73 1.0 4.0 0.00 0.00 0.00 65 1008.7
20260508235006 79 54 0.0 2.0 0.00 0.00 0.00 65 1008.7
20260508234903 79 70 0.0 2.0 0.00 0.00 0.00 65 1008.7
20260508234804 79 35 0.0 2.0 0.00 0.00 0.00 65 1008.8
20260508234703 79 74 0.0 2.0 0.00 0.00 0.00 65 1008.6
20260508234603 79 87 1.0 2.0 0.00 0.00 0.00 65 1008.7
20260508234504 79 30 1.0 2.0 0.00 0.00 0.00 65 1008.7
20260508234402 79 44 0.0 2.0 0.00 0.00 0.00 65 1008.6
20260508234302 79 53 0.0 2.0 0.00 0.00 0.00 65 1008.6
20260508234202 79 53 0.0 2.0 0.00 0.00 0.00 65 1008.6
20260508234103 79 52 0.0 2.0 0.00 0.00 0.00 65 1008.6
20260508234005 79 52 0.0 2.0 0.00 0.00 0.00 65 1008.6
20260508233902 79 38 0.0 2.0 0.00 0.00 0.00 65 1008.6
20260508233801 79 46 1.0 2.0 0.00 0.00 0.00 65 1008.6
20260508233604 79 51 1.0 4.0 0.00 0.00 0.00 65 1008.6
20260508233505 79 54 1.0 4.0 0.00 0.00 0.00 65 1008.6
20260508233402 79 80 1.0 4.0 0.00 0.00 0.00 65 1008.6
20260508233303 79 58 0.0 4.0 0.00 0.00 0.00 65 1008.6
20260508233203 79 36 0.0 4.0 0.00 0.00 0.00 65 1008.5
20260508233103 79 9 1.0 4.0 0.00 0.00 0.00 64 1008.6
20260508233004 79 30 1.0 4.0 0.00 0.00 0.00 64 1008.6
20260508232803 79 51 1.0 3.0 0.00 0.00 0.00 64 1008.6
20260508232702 79 42 1.0 3.0 0.00 0.00 0.00 64 1008.5
20260508232601 79 72 1.0 3.0 0.00 0.00 0.00 64 1008.5
20260508232506 79 57 1.0 3.0 0.00 0.00 0.00 64 1008.5
20260508232403 79 44 2.0 3.0 0.00 0.00 0.00 64 1008.4
20260508232307 79 30 1.0 3.0 0.00 0.00 0.00 64 1008.4
20260508232202 79 13 0.0 2.0 0.00 0.00 0.00 64 1008.4
20260508232102 79 13 0.0 2.0 0.00 0.00 0.00 64 1008.4
20260508232005 79 13 0.0 2.0 0.00 0.00 0.00 64 1008.4
20260508231903 80 13 0.0 1.0 0.00 0.00 0.00 64 1008.4
20260508231802 80 13 0.0 1.0 0.00 0.00 0.00 64 1008.4
20260508231703 80 13 0.0 1.0 0.00 0.00 0.00 64 1008.4
20260508231203 80 13 0.0 1.0 0.00 0.00 0.00 64 1008.4
20260508231104 80 13 0.0 1.0 0.00 0.00 0.00 63 1008.4
20260508231004 80 13 0.0 1.0 0.00 0.00 0.00 63 1008.4
20260508230902 80 13 0.0 2.0 0.00 0.00 0.00 63 1008.4
20260508230801 80 13 0.0 2.0 0.00 0.00 0.00 63 1008.4
20260508230703 80 13 0.0 2.0 0.00 0.00 0.00 63 1008.5
20260508230601 80 13 0.0 2.0 0.00 0.00 0.00 63 1008.4
20260508230504 80 13 0.0 2.0 0.00 0.00 0.00 63 1008.4
20260508230403 80 13 0.0 2.0 0.00 0.00 0.00 63 1008.3
20260508230302 80 13 0.0 2.0 0.00 0.00 0.00 63 1008.3
20260508230202 80 20 0.0 2.0 0.00 0.00 0.00 63 1008.4
20260508230007 80 23 0.0 1.0 0.00 0.00 0.00 63 1008.4
20260508225902 80 19 0.0 2.0 0.00 0.00 0.00 63 1008.4
20260508225802 80 19 0.0 2.0 0.00 0.00 0.00 63 1008.3
20260508225702 80 19 0.0 2.0 0.00 0.00 0.00 63 1008.4
20260508225604 80 19 0.0 3.0 0.00 0.00 0.00 63 1008.4
20260508225504 80 24 0.0 3.0 0.00 0.00 0.00 63 1008.3
20260508225401 80 24 0.0 3.0 0.00 0.00 0.00 63 1008.4
20260508225301 80 31 0.0 3.0 0.00 0.00 0.00 62 1008.4
20260508225201 80 19 0.0 3.0 0.00 0.00 0.00 62 1008.4
20260508225103 80 42 0.0 3.0 0.00 0.00 0.00 62 1008.4
20260508225005 80 42 1.0 3.0 0.00 0.00 0.00 62 1008.3
20260508224903 80 42 1.0 3.0 0.00 0.00 0.00 62 1008.3
20260508224802 80 42 0.0 3.0 0.00 0.00 0.00 62 1008.4
20260508224704 80 42 1.0 3.0 0.00 0.00 0.00 62 1008.4
20260508224603 80 75 1.0 3.0 0.00 0.00 0.00 62 1008.3
20260508224504 80 51 0.0 0.0 0.00 0.00 0.00 62 1008.3
20260508224402 80 59 0.0 0.0 0.00 0.00 0.00 62 1008.3
20260508224202 80 46 0.0 0.0 0.00 0.00 0.00 63 1008.3
20260508224103 80 87 0.0 0.0 0.00 0.00 0.00 63 1008.2
20260508224003 80 71 0.0 0.0 0.00 0.00 0.00 63 1008.4
20260508223902 80 89 0.0 0.0 0.00 0.00 0.00 63 1008.3
20260508223802 80 50 0.0 0.0 0.00 0.00 0.00 63 1008.4
20260508223701 80 50 0.0 0.0 0.00 0.00 0.00 63 1008.3
20260508223602 80 50 0.0 0.0 0.00 0.00 0.00 63 1008.3
20260508223402 80 70 0.0 0.0 0.00 0.00 0.00 63 1008.3
20260508223301 80 70 0.0 0.0 0.00 0.00 0.00 63 1008.3
20260508223202 80 70 0.0 0.0 0.00 0.00 0.00 63 1008.3
20260508223103 80 44 0.0 0.0 0.00 0.00 0.00 63 1008.3
20260508223006 80 68 0.0 0.0 0.00 0.00 0.00 63 1008.4
20260508222803 80 82 0.0 0.0 0.00 0.00 0.00 63 1008.3
20260508222703 80 77 0.0 0.0 0.00 0.00 0.00 63 1008.3
20260508222601 80 71 0.0 0.0 0.00 0.00 0.00 63 1008.3
20260508222503 80 61 0.0 0.0 0.00 0.00 0.00 63 1008.3
20260508222402 80 77 0.0 0.0 0.00 0.00 0.00 63 1008.3
20260508222204 80 21 0.0 0.0 0.00 0.00 0.00 63 1008.3
20260508221901 80 21 0.0 0.0 0.00 0.00 0.00 63 1008.4
20260508221802 80 21 0.0 0.0 0.00 0.00 0.00 63 1008.3
20260508221701 80 21 0.0 0.0 0.00 0.00 0.00 63 1008.3
20260508221601 80 21 0.0 0.0 0.00 0.00 0.00 63 1008.3
20260508221503 80 21 0.0 0.0 0.00 0.00 0.00 63 1008.4
20260508221402 80 21 0.0 0.0 0.00 0.00 0.00 63 1008.4
20260508221303 80 21 0.0 0.0 0.00 0.00 0.00 63 1008.4
20260508221201 80 21 0.0 0.0 0.00 0.00 0.00 63 1008.4
20260508221101 80 21 0.0 0.0 0.00 0.00 0.00 62 1008.3
20260508221006 80 21 0.0 0.0 0.00 0.00 0.00 62 1008.4
20260508220801 80 21 0.0 0.0 0.00 0.00 0.00 62 1008.3
20260508220701 80 21 0.0 0.0 0.00 0.00 0.00 62 1008.4
20260508220602 80 21 0.0 0.0 0.00 0.00 0.00 62 1008.4
20260508220505 80 21 0.0 1.0 0.00 0.00 0.00 62 1008.4
20260508220402 80 21 0.0 1.0 0.00 0.00 0.00 62 1008.4
20260508220202 80 21 0.0 2.0 0.00 0.00 0.00 62 1008.3
20260508220004 80 21 0.0 2.0 0.00 0.00 0.00 62 1008.4
20260508215801 80 21 0.0 2.0 0.00 0.00 0.00 62 1008.3
20260508215601 80 21 1.0 2.0 0.00 0.00 0.00 62 1008.4
20260508215503 80 21 1.0 2.0 0.00 0.00 0.00 62 1008.3
20260508215403 80 19 0.0 1.0 0.00 0.00 0.00 62 1008.3
20260508215306 80 32 0.0 1.0 0.00 0.00 0.00 62 1008.4
20260508215101 80 32 0.0 1.0 0.00 0.00 0.00 64 1008.4
20260508215007 80 32 0.0 0.0 0.00 0.00 0.00 64 1008.4
20260508214901 80 32 0.0 0.0 0.00 0.00 0.00 64 1008.4
20260508214603 80 32 0.0 0.0 0.00 0.00 0.00 63 1008.4
20260508214506 80 32 0.0 0.0 0.00 0.00 0.00 63 1008.4
20260508214404 80 32 0.0 0.0 0.00 0.00 0.00 63 1008.5
20260508214303 80 32 0.0 0.0 0.00 0.00 0.00 63 1008.5
20260508214202 80 32 0.0 0.0 0.00 0.00 0.00 63 1008.5
20260508214102 80 32 0.0 0.0 0.00 0.00 0.00 63 1008.5
20260508213901 80 32 0.0 0.0 0.00 0.00 0.00 63 1008.6
20260508213703 80 32 0.0 0.0 0.00 0.00 0.00 63 1008.6
20260508213603 80 32 0.0 0.0 0.00 0.00 0.00 63 1008.6
20260508213504 80 32 0.0 0.0 0.00 0.00 0.00 63 1008.6
20260508213401 80 32 0.0 0.0 0.00 0.00 0.00 63 1008.6
20260508213303 80 32 0.0 0.0 0.00 0.00 0.00 63 1008.6
20260508213105 80 32 0.0 0.0 0.00 0.00 0.00 63 1008.6
20260508213004 80 32 0.0 0.0 0.00 0.00 0.00 63 1008.7
20260508212801 80 32 0.0 0.0 0.00 0.00 0.00 63 1008.7
20260508212706 80 32 0.0 0.0 0.00 0.00 0.00 63 1008.7
20260508212603 80 32 0.0 0.0 0.00 0.00 0.00 63 1008.7
20260508212507 80 32 0.0 0.0 0.00 0.00 0.00 63 1008.7
20260508212406 80 32 0.0 1.0 0.00 0.00 0.00 63 1008.7
20260508212306 80 32 0.0 1.0 0.00 0.00 0.00 63 1008.7
20260508212203 80 32 0.0 1.0 0.00 0.00 0.00 63 1008.7
20260508212103 80 32 0.0 1.0 0.00 0.00 0.00 63 1008.8
20260508212006 80 32 0.0 1.0 0.00 0.00 0.00 63 1008.8
20260508211903 80 32 0.0 1.0 0.00 0.00 0.00 62 1008.7
20260508211802 80 32 0.0 1.0 0.00 0.00 0.00 62 1008.8
20260508211702 80 32 0.0 1.0 0.00 0.00 0.00 62 1008.8
20260508211602 80 32 0.0 1.0 0.00 0.00 0.00 62 1008.9
20260508211504 80 32 0.0 1.0 0.00 0.00 0.00 62 1008.8
20260508211359 80 27 0.0 1.0 0.00 0.00 0.00 62 1008.8
20260508211302 80 29 0.0 1.0 0.00 0.00 0.00 63 1008.8
20260508211203 80 29 0.0 1.0 0.00 0.00 0.00 63 1008.8
20260508211102 80 23 0.0 1.0 0.00 0.00 0.00 63 1008.8
20260508211007 80 23 0.0 1.0 0.00 0.00 0.00 63 1008.9
20260508210902 80 337 0.0 1.0 0.00 0.00 0.00 63 1008.9
20260508210803 80 337 0.0 1.0 0.00 0.00 0.00 63 1008.9
20260508210602 80 337 0.0 0.0 0.00 0.00 0.00 64 1008.8
20260508210506 80 337 0.0 0.0 0.00 0.00 0.00 64 1008.8
20260508210402 80 337 0.0 0.0 0.00 0.00 0.00 64 1008.8
20260508210304 80 337 0.0 0.0 0.00 0.00 0.00 64 1008.8
20260508210202 80 337 0.0 0.0 0.00 0.00 0.00 64 1008.9
20260508210008 80 337 0.0 1.0 0.00 0.00 0.00 64 1008.9
20260508205902 80 337 0.0 1.0 0.00 0.00 0.00 64 1008.9
20260508205704 80 337 0.0 1.0 0.00 0.00 0.00 64 1009.0
20260508205601 80 337 0.0 1.0 0.00 0.00 0.00 63 1008.9
20260508205503 80 337 0.0 1.0 0.00 0.00 0.00 63 1008.9
20260508205403 80 337 0.0 1.0 0.00 0.00 0.00 63 1008.9
20260508205202 80 337 0.0 0.0 0.00 0.00 0.00 63 1008.9
20260508205102 80 337 0.0 0.0 0.00 0.00 0.00 63 1008.9
20260508205004 80 337 0.0 0.0 0.00 0.00 0.00 63 1008.9
20260508204902 80 337 0.0 0.0 0.00 0.00 0.00 63 1008.9
20260508204702 80 337 0.0 0.0 0.00 0.00 0.00 63 1008.9
20260508204602 80 337 0.0 0.0 0.00 0.00 0.00 63 1008.9
20260508204505 80 337 0.0 0.0 0.00 0.00 0.00 63 1008.9
20260508204302 80 337 0.0 0.0 0.00 0.00 0.00 63 1008.9
20260508204201 80 337 0.0 0.0 0.00 0.00 0.00 63 1008.9
20260508204103 80 337 0.0 0.0 0.00 0.00 0.00 63 1008.9
20260508204005 80 337 0.0 0.0 0.00 0.00 0.00 63 1008.9
20260508203903 80 337 0.0 0.0 0.00 0.00 0.00 63 1008.9
20260508203703 80 337 0.0 0.0 0.00 0.00 0.00 63 1008.9
20260508203601 80 337 0.0 0.0 0.00 0.00 0.00 63 1008.9
20260508203404 80 337 0.0 0.0 0.00 0.00 0.00 63 1008.9
20260508203302 80 337 0.0 0.0 0.00 0.00 0.00 63 1008.9
20260508203203 80 337 0.0 0.0 0.00 0.00 0.00 63 1008.9
20260508203102 80 337 0.0 0.0 0.00 0.00 0.00 62 1008.9
20260508203007 80 337 0.0 0.0 0.00 0.00 0.00 62 1008.9
20260508202901 80 337 0.0 0.0 0.00 0.00 0.00 62 1008.9
20260508202702 80 337 0.0 0.0 0.00 0.00 0.00 62 1009.0
20260508202605 80 337 0.0 0.0 0.00 0.00 0.00 62 1009.0
20260508202306 80 337 0.0 0.0 0.00 0.00 0.00 62 1009.0
20260508202202 80 337 0.0 0.0 0.00 0.00 0.00 62 1009.0
20260508202104 80 337 0.0 0.0 0.00 0.00 0.00 62 1009.0
20260508202005 80 337 0.0 0.0 0.00 0.00 0.00 62 1009.0
20260508201902 80 337 0.0 0.0 0.00 0.00 0.00 62 1009.0
20260508201802 80 337 0.0 0.0 0.00 0.00 0.00 62 1009.0
20260508201703 80 337 0.0 1.0 0.00 0.00 0.00 62 1009.0
20260508201602 80 337 0.0 1.0 0.00 0.00 0.00 62 1009.0
20260508201505 80 337 0.0 1.0 0.00 0.00 0.00 62 1009.0
20260508201403 80 337 0.0 1.0 0.00 0.00 0.00 61 1009.0
20260508201202 80 337 0.0 1.0 0.00 0.00 0.00 61 1009.0
20260508201005 80 337 0.0 1.0 0.00 0.00 0.00 61 1009.0
20260508200904 80 337 0.0 1.0 0.00 0.00 0.00 61 1009.0
20260508200802 80 337 0.0 1.0 0.00 0.00 0.00 61 1009.0
20260508200701 80 337 0.0 2.0 0.00 0.00 0.00 61 1009.0
20260508200602 80 337 0.0 2.0 0.00 0.00 0.00 61 1009.0
20260508200505 80 337 0.0 2.0 0.00 0.00 0.00 61 1008.9
20260508200404 80 337 0.0 2.0 0.00 0.00 0.00 60 1008.9
20260508200303 80 337 0.0 2.0 0.00 0.00 0.00 60 1009.1
20260508200201 80 337 0.0 2.0 0.00 0.00 0.00 60 1009.0
20260508200103 80 337 0.0 2.0 0.00 0.00 0.00 60 1009.0
20260508200010 80 337 0.0 2.0 0.00 0.00 0.00 60 1009.0
20260508195904 80 337 1.0 3.0 0.00 0.00 0.00 60 1009.1
20260508195804 80 348 1.0 3.0 0.00 0.00 0.00 60 1009.0
20260508195703 80 355 0.0 3.0 0.00 0.00 0.00 60 1009.1
20260508195603 80 5 0.0 3.0 0.00 0.00 0.00 59 1009.1
20260508195504 80 360 0.0 3.0 0.00 0.00 0.00 59 1009.1
20260508195404 80 26 1.0 3.0 0.00 0.00 0.00 59 1009.1
20260508195306 81 350 1.0 3.0 0.00 0.00 0.00 59 1009.1
20260508195203 81 348 0.0 3.0 0.00 0.00 0.00 59 1009.1
20260508195103 81 348 1.0 3.0 0.00 0.00 0.00 59 1009.1
20260508194904 81 355 0.0 2.0 0.00 0.00 0.00 58 1009.1
20260508194704 81 355 0.0 2.0 0.00 0.00 0.00 58 1009.1
20260508194604 81 355 0.0 2.0 0.00 0.00 0.00 58 1009.1
20260508194402 81 346 0.0 2.0 0.00 0.00 0.00 57 1009.2
20260508194304 81 346 0.0 3.0 0.00 0.00 0.00 57 1009.2
20260508194203 81 346 0.0 3.0 0.00 0.00 0.00 57 1009.2
20260508194105 81 346 0.0 3.0 0.00 0.00 0.00 57 1009.1
20260508194005 81 346 0.0 3.0 0.00 0.00 0.00 57 1009.1
20260508193904 81 346 0.0 3.0 0.00 0.00 0.00 57 1009.1
20260508193804 81 346 0.0 3.0 0.00 0.00 0.00 57 1009.1
20260508193704 81 346 1.0 3.0 0.00 0.00 0.00 57 1009.2
20260508193605 81 355 2.0 3.0 0.00 0.00 0.00 56 1009.2
20260508193507 81 355 1.0 3.0 0.00 0.00 0.00 56 1009.2
20260508193305 81 350 0.0 2.0 0.00 0.00 0.00 56 1009.2
20260508193204 81 350 0.0 2.0 0.00 0.00 0.00 56 1009.2
20260508193103 81 350 0.0 2.0 0.00 0.00 0.00 56 1009.3
20260508192904 82 350 1.0 2.0 0.00 0.00 0.00 56 1009.2
20260508192803 82 350 1.0 2.0 0.00 0.00 0.00 56 1009.2
20260508192704 82 350 1.0 2.0 0.00 0.00 0.00 56 1009.3
20260508192604 82 350 0.0 1.0 0.00 0.00 0.00 56 1009.2
20260508192405 82 350 1.0 1.0 0.00 0.00 0.00 56 1009.2
20260508192305 82 350 1.0 1.0 0.00 0.00 0.00 56 1009.3
20260508192203 82 350 1.0 1.0 0.00 0.00 0.00 56 1009.3
20260508192104 82 350 0.0 1.0 0.00 0.00 0.00 56 1009.3
20260508191804 82 350 1.0 1.0 0.00 0.00 0.00 55 1009.3
20260508191702 82 21 0.0 1.0 0.00 0.00 0.00 55 1009.3
20260508191602 82 21 0.0 1.0 0.00 0.00 0.00 55 1009.3
20260508191404 82 21 0.0 1.0 0.00 0.00 0.00 55 1009.2
20260508191302 82 21 0.0 1.0 0.00 0.00 0.00 55 1009.3
20260508191204 82 21 0.0 1.0 0.00 0.00 0.00 55 1009.2
20260508191104 82 21 0.0 1.0 0.00 0.00 0.00 54 1009.2
20260508191007 82 21 0.0 1.0 0.00 0.00 0.00 54 1009.2
20260508190903 83 20 0.0 1.0 0.00 0.00 0.00 55 1009.2
20260508190803 83 16 0.0 1.0 0.00 0.00 0.00 55 1009.2
20260508190704 83 24 0.0 1.0 0.00 0.00 0.00 55 1009.2
20260508190604 83 24 0.0 1.0 0.00 0.00 0.00 55 1009.2
20260508190506 83 24 0.0 1.0 0.00 0.00 0.00 55 1009.2
20260508190205 83 24 0.0 1.0 0.00 0.00 0.00 54 1009.2
20260508190104 83 24 0.0 1.0 0.00 0.00 0.00 54 1009.2
20260508190006 83 24 0.0 0.0 0.00 0.00 0.00 54 1009.3
20260508185704 83 24 0.0 0.0 0.00 0.00 0.00 53 1009.4
20260508185603 83 24 0.0 0.0 0.00 0.00 0.00 53 1009.4
20260508185403 83 24 0.0 0.0 0.00 0.00 0.00 53 1009.4
20260508185306 83 28 0.0 0.0 0.00 0.00 0.00 53 1009.4
20260508185102 83 28 0.0 0.0 0.00 0.00 0.00 53 1009.4
20260508185006 83 28 0.0 0.0 0.00 0.00 0.00 52 1009.4
20260508184903 83 28 0.0 0.0 0.00 0.00 0.00 52 1009.4
20260508184803 83 28 0.0 0.0 0.00 0.00 0.00 52 1009.4
20260508184703 83 28 0.0 1.0 0.00 0.00 0.00 52 1009.4
20260508184602 83 28 0.0 1.0 0.00 0.00 0.00 52 1009.4
20260508184505 83 28 0.0 1.0 0.00 0.00 0.00 52 1009.4
20260508184403 83 28 0.0 1.0 0.00 0.00 0.00 52 1009.4
20260508184302 83 28 0.0 1.0 0.00 0.00 0.00 52 1009.4
20260508184203 83 28 0.0 2.0 0.00 0.00 0.00 52 1009.4
20260508184102 83 28 0.0 3.0 0.00 0.00 0.00 52 1009.5
20260508184007 83 28 0.0 3.0 0.00 0.00 0.00 51 1009.4
20260508183803 83 28 0.0 3.0 0.00 0.00 0.00 51 1009.4
20260508183603 83 28 0.0 4.0 0.00 0.00 0.00 51 1009.4
20260508183504 83 28 0.0 4.0 0.00 0.00 0.00 51 1009.5
20260508183403 83 71 1.0 4.0 0.00 0.00 0.00 51 1009.4
20260508183303 83 61 2.0 4.0 0.00 0.00 0.00 51 1009.5
20260508183202 83 74 2.0 4.0 0.00 0.00 0.00 51 1009.5
20260508183103 83 52 1.0 4.0 0.00 0.00 0.00 51 1009.5
20260508183005 83 73 1.0 4.0 0.00 0.00 0.00 51 1009.5
20260508182903 83 40 1.0 4.0 0.00 0.00 0.00 50 1009.6
20260508182803 83 41 0.0 4.0 0.00 0.00 0.00 51 1009.6
20260508182703 83 70 1.0 4.0 0.00 0.00 0.00 50 1009.5
20260508182603 83 53 1.0 4.0 0.00 0.00 0.00 50 1009.6
20260508182504 83 63 1.0 4.0 0.00 0.00 0.00 50 1009.6
20260508182403 83 111 1.0 4.0 0.00 0.00 0.00 50 1009.5
20260508182306 84 71 1.0 4.0 0.00 0.00 0.00 50 1009.5
20260508182202 84 69 1.0 4.0 0.00 0.00 0.00 50 1009.5
20260508182103 84 55 1.0 3.0 0.00 0.00 0.00 50 1009.5
20260508181902 84 88 1.0 3.0 0.00 0.00 0.00 50 1009.6
20260508181603 84 95 1.0 3.0 0.00 0.00 0.00 50 1009.6
20260508181504 84 67 1.0 3.0 0.00 0.00 0.00 50 1009.5
20260508181302 84 105 0.0 3.0 0.00 0.00 0.00 50 1009.6
20260508181203 84 72 1.0 3.0 0.00 0.00 0.00 50 1009.5
20260508181103 84 107 0.0 3.0 0.00 0.00 0.00 50 1009.6
20260508181006 84 84 1.0 3.0 0.00 0.00 0.00 50 1009.5
20260508180903 84 74 2.0 3.0 0.00 0.00 0.00 50 1009.5
20260508180803 84 82 1.0 3.0 0.00 0.00 0.00 50 1009.5
20260508180703 84 120 1.0 3.0 0.00 0.00 0.00 50 1009.5
20260508180505 84 81 2.0 3.0 0.00 0.00 0.00 50 1009.5
20260508180303 84 90 2.0 3.0 0.00 0.00 0.00 49 1009.5
20260508180202 84 107 1.0 3.0 0.00 0.00 0.00 49 1009.5
20260508180103 84 101 1.0 3.0 0.00 0.00 0.00 49 1009.5
20260508180007 84 88 1.0 3.0 0.00 0.00 0.00 49 1009.5
20260508175903 84 93 1.0 3.0 0.00 0.00 0.00 49 1009.6
20260508175803 84 63 1.0 3.0 0.00 0.00 0.00 49 1009.6
20260508175703 84 50 1.0 3.0 0.00 0.00 0.00 49 1009.6
20260508175602 84 71 0.0 3.0 0.00 0.00 0.00 49 1009.6
20260508175504 84 87 0.0 3.0 0.00 0.00 0.00 49 1009.7
20260508175402 84 87 1.0 3.0 0.00 0.00 0.00 49 1009.7
20260508175305 84 92 2.0 3.0 0.00 0.00 0.00 49 1009.7
20260508175202 84 104 1.0 3.0 0.00 0.00 0.00 49 1009.7
20260508175102 84 102 1.0 3.0 0.00 0.00 0.00 49 1009.7
20260508175006 84 88 1.0 4.0 0.00 0.00 0.00 49 1009.7
20260508174903 85 86 1.0 4.0 0.00 0.00 0.00 49 1009.7
20260508174703 85 99 1.0 4.0 0.00 0.00 0.00 49 1009.6
20260508174604 85 90 1.0 4.0 0.00 0.00 0.00 49 1009.8
20260508174505 85 77 1.0 4.0 0.00 0.00 0.00 49 1009.8
20260508174405 85 94 1.0 4.0 0.00 0.00 0.00 49 1009.8
20260508174302 85 105 2.0 4.0 0.00 0.00 0.00 49 1009.8
20260508174202 85 90 2.0 4.0 0.00 0.00 0.00 49 1009.7
20260508174103 85 90 1.0 3.0 0.00 0.00 0.00 49 1009.8
20260508174007 85 66 1.0 3.0 0.00 0.00 0.00 49 1009.8
20260508173903 85 68 1.0 3.0 0.00 0.00 0.00 49 1009.8
20260508173802 85 96 1.0 3.0 0.00 0.00 0.00 49 1009.9
20260508173705 85 55 1.0 3.0 0.00 0.00 0.00 49 1009.8
20260508173603 85 103 1.0 3.0 0.00 0.00 0.00 48 1009.8
20260508173505 85 82 1.0 3.0 0.00 0.00 0.00 48 1009.9
20260508173402 85 76 1.0 3.0 0.00 0.00 0.00 48 1009.8
20260508173303 85 101 1.0 3.0 0.00 0.00 0.00 48 1009.9
20260508173202 85 71 1.0 3.0 0.00 0.00 0.00 48 1009.8
20260508173103 85 93 1.0 3.0 0.00 0.00 0.00 48 1009.8
20260508173006 85 85 1.0 3.0 0.00 0.00 0.00 48 1009.8
20260508172903 85 94 0.0 3.0 0.00 0.00 0.00 48 1009.8
20260508172803 85 128 1.0 3.0 0.00 0.00 0.00 48 1009.8
20260508172703 85 89 2.0 3.0 0.00 0.00 0.00 48 1009.8
20260508172603 85 110 2.0 3.0 0.00 0.00 0.00 48 1009.8
20260508172508 85 107 1.0 3.0 0.00 0.00 0.00 48 1009.8
20260508172307 85 91 1.0 3.0 0.00 0.00 0.00 48 1009.9
20260508172203 85 87 1.0 3.0 0.00 0.00 0.00 48 1009.9
20260508172103 85 104 1.0 3.0 0.00 0.00 0.00 48 1009.8
20260508172006 85 74 1.0 3.0 0.00 0.00 0.00 48 1009.9
20260508171904 85 90 1.0 4.0 0.00 0.00 0.00 48 1009.9
20260508171803 85 83 1.0 4.0 0.00 0.00 0.00 48 1009.8
20260508171702 85 79 1.0 4.0 0.00 0.00 0.00 48 1009.9
20260508171603 85 97 1.0 4.0 0.00 0.00 0.00 48 1009.8
20260508171504 85 74 1.0 4.0 0.00 0.00 0.00 48 1009.8
20260508171403 85 120 1.0 4.0 0.00 0.00 0.00 48 1009.8
20260508171304 85 132 1.0 4.0 0.00 0.00 0.00 48 1009.7
20260508171203 85 107 2.0 4.0 0.00 0.00 0.00 48 1009.8
20260508171006 85 135 2.0 4.0 0.00 0.00 0.00 48 1009.8
20260508170803 85 98 2.0 5.0 0.00 0.00 0.00 48 1009.8
20260508170703 85 144 1.0 5.0 0.00 0.00 0.00 48 1009.8
20260508170603 85 97 1.0 5.0 0.00 0.00 0.00 48 1009.7
20260508170505 85 111 2.0 5.0 0.00 0.00 0.00 48 1009.7
20260508170304 85 115 2.0 5.0 0.00 0.00 0.00 48 1009.8
20260508170006 85 108 2.0 5.0 0.00 0.00 0.00 48 1009.7
20260508165903 85 109 2.0 4.0 0.00 0.00 0.00 48 1009.8
20260508165802 85 80 3.0 4.0 0.00 0.00 0.00 48 1009.8
20260508165602 85 80 2.0 4.0 0.00 0.00 0.00 48 1009.8
20260508165505 85 103 2.0 4.0 0.00 0.00 0.00 48 1009.8
20260508165402 85 97 2.0 4.0 0.00 0.00 0.00 48 1009.9
20260508165306 85 157 2.0 4.0 0.00 0.00 0.00 48 1009.8
20260508165203 85 120 2.0 4.0 0.00 0.00 0.00 48 1009.7
20260508165103 85 100 2.0 7.0 0.00 0.00 0.00 48 1009.8
20260508165006 85 109 2.0 7.0 0.00 0.00 0.00 48 1009.8
20260508164803 85 103 2.0 7.0 0.00 0.00 0.00 47 1009.7
20260508164703 85 127 2.0 7.0 0.00 0.00 0.00 48 1009.8
20260508164506 85 123 2.0 7.0 0.00 0.00 0.00 48 1009.7
20260508164403 85 103 3.0 7.0 0.00 0.00 0.00 48 1009.7
20260508164304 85 105 3.0 7.0 0.00 0.00 0.00 48 1009.8
20260508164203 85 110 3.0 7.0 0.00 0.00 0.00 48 1009.8
20260508164103 85 90 4.0 7.0 0.00 0.00 0.00 48 1009.8
20260508164006 85 98 3.0 7.0 0.00 0.00 0.00 48 1009.7
20260508163903 85 104 3.0 7.0 0.00 0.00 0.00 48 1009.8
20260508163803 85 83 2.0 6.0 0.00 0.00 0.00 48 1009.7
20260508163604 85 109 2.0 6.0 0.00 0.00 0.00 48 1009.7
20260508163505 85 120 1.0 4.0 0.00 0.00 0.00 48 1009.8
20260508163402 85 97 2.0 4.0 0.00 0.00 0.00 48 1009.8
20260508163203 85 121 2.0 4.0 0.00 0.00 0.00 48 1009.8
20260508163102 85 109 2.0 4.0 0.00 0.00 0.00 48 1009.8
20260508163006 85 115 2.0 4.0 0.00 0.00 0.00 48 1009.8
20260508162802 85 121 2.0 4.0 0.00 0.00 0.00 48 1009.8
20260508162703 86 126 2.0 4.0 0.00 0.00 0.00 48 1009.8
20260508162602 86 112 2.0 4.0 0.00 0.00 0.00 48 1009.8
20260508162504 86 128 2.0 4.0 0.00 0.00 0.00 48 1009.8
20260508162403 86 132 2.0 4.0 0.00 0.00 0.00 48 1009.8
20260508162306 86 127 2.0 4.0 0.00 0.00 0.00 48 1009.8
20260508162203 86 101 2.0 4.0 0.00 0.00 0.00 48 1009.8
20260508161903 86 105 2.0 4.0 0.00 0.00 0.00 48 1009.8
20260508161802 86 108 2.0 4.0 0.00 0.00 0.00 48 1009.8
20260508161703 86 103 2.0 4.0 0.00 0.00 0.00 48 1009.8
20260508161602 86 94 2.0 4.0 0.00 0.00 0.00 48 1009.8
20260508161402 86 111 2.0 4.0 0.00 0.00 0.00 48 1009.8
20260508161303 86 84 3.0 4.0 0.00 0.00 0.00 48 1009.9
20260508161203 86 97 2.0 4.0 0.00 0.00 0.00 48 1009.8
20260508161103 86 109 2.0 4.0 0.00 0.00 0.00 48 1009.8
20260508161005 86 106 2.0 6.0 0.00 0.00 0.00 48 1009.8
20260508160902 86 85 2.0 6.0 0.00 0.00 0.00 48 1009.9
20260508160803 86 80 2.0 6.0 0.00 0.00 0.00 48 1009.8
20260508160702 86 136 2.0 6.0 0.00 0.00 0.00 48 1009.8
20260508160603 86 112 2.0 6.0 0.00 0.00 0.00 47 1009.8
20260508160506 86 89 2.0 6.0 0.00 0.00 0.00 47 1009.8
20260508160406 86 129 2.0 6.0 0.00 0.00 0.00 47 1009.8
20260508160303 86 119 2.0 6.0 0.00 0.00 0.00 47 1009.7
20260508160203 86 103 2.0 6.0 0.00 0.00 0.00 47 1009.8
20260508160005 86 123 2.0 6.0 0.00 0.00 0.00 47 1009.8
20260508155902 86 113 2.0 6.0 0.00 0.00 0.00 47 1009.7
20260508155803 86 90 2.0 6.0 0.00 0.00 0.00 47 1009.7
20260508155702 86 117 2.0 6.0 0.00 0.00 0.00 47 1009.7
20260508155602 86 135 3.0 6.0 0.00 0.00 0.00 47 1009.7
20260508155504 86 84 2.0 6.0 0.00 0.00 0.00 47 1009.7
20260508155403 86 97 2.0 6.0 0.00 0.00 0.00 47 1009.7
20260508155305 86 96 2.0 5.0 0.00 0.00 0.00 47 1009.7
20260508155204 86 92 2.0 5.0 0.00 0.00 0.00 47 1009.7
20260508155103 86 139 2.0 5.0 0.00 0.00 0.00 47 1009.7
20260508155005 86 92 2.0 5.0 0.00 0.00 0.00 47 1009.6
20260508154903 86 111 3.0 6.0 0.00 0.00 0.00 47 1009.6
20260508154702 86 138 2.0 6.0 0.00 0.00 0.00 47 1009.6
20260508154602 86 96 2.0 6.0 0.00 0.00 0.00 47 1009.6
20260508154518 86 110 3.0 6.0 0.00 0.00 0.00 48 1009.7
20260508154402 86 131 3.0 6.0 0.00 0.00 0.00 48 1009.6